GFSGL_500_spd_030.txt.gz
Wind_Speed
50 53 55 56 57 57 57 57 57 58 59 62 63 63 64 66 68 69 73 77 79 84 88 88 89 81 67 59 54 49 46 47 47 44 45 46 47 47 46 45 44 42 42
52 55 55 57 58 58 58 55 56 59 63 64 64 66 68 69 72 74 78 83 85 88 85 89 79 69 60 51 47 45 45 45 47 47 45 45 45 47 44 42 40 40 41
53 54 56 58 58 58 56 55 58 60 63 64 67 70 72 75 80 84 85 80 84 85 84 83 74 62 51 46 44 44 43 44 47 47 43 44 44 42 40 38 39 41 43
53 55 56 55 55 56 57 55 59 61 62 66 69 72 75 81 86 83 79 80 81 82 79 74 62 55 46 43 42 41 43 45 45 44 43 43 40 37 37 38 40 44 45
54 55 55 54 54 54 60 58 59 62 65 69 73 75 81 86 79 73 77 81 79 75 74 63 53 48 42 39 39 40 43 45 45 44 43 40 37 34 36 40 44 46 41
54 53 52 54 54 58 58 58 62 67 67 72 75 74 78 82 72 74 78 77 75 68 63 53 47 43 39 37 37 38 41 42 43 41 39 36 33 34 38 42 45 42 36
51 53 54 55 55 57 61 63 67 70 75 81 82 81 76 74 69 76 77 74 67 61 53 48 42 40 37 38 39 41 42 43 42 39 35 33 31 35 37 41 41 37 35
55 56 55 54 56 62 65 68 74 73 75 85 85 82 74 70 75 73 71 64 58 54 47 43 40 39 37 37 38 39 39 40 39 37 35 30 31 34 38 40 36 32 30
56 55 56 57 62 66 72 75 80 91 91 80 70 63 72 80 77 69 64 58 52 48 43 41 38 37 37 37 38 38 39 38 36 34 33 28 29 33 36 35 32 28 23
56 59 62 67 71 71 75 88 96 83 74 68 67 77 82 83 66 62 58 52 47 43 39 38 34 33 34 36 36 36 36 35 33 30 30 27 28 31 33 32 28 24 19
57 59 60 65 64 74 79 91 81 70 67 69 78 81 65 63 59 55 53 49 43 37 36 35 32 31 33 33 34 34 35 32 31 28 27 25 26 29 30 31 26 21 17
54 65 67 64 67 72 82 81 70 66 73 82 79 65 60 55 54 52 50 45 38 34 34 31 29 30 31 31 32 33 34 32 30 28 26 24 24 26 27 28 25 21 17
63 64 71 77 74 75 71 73 72 74 79 69 64 59 53 51 51 47 44 40 35 33 30 27 27 29 30 30 30 31 33 33 31 29 25 24 21 23 24 25 23 20 17
64 69 73 77 83 77 76 77 82 77 72 63 58 55 52 49 49 45 39 34 32 29 27 26 28 30 29 29 29 30 30 30 29 27 25 23 21 20 21 22 23 19 17
65 66 69 74 72 75 80 78 70 68 65 61 56 51 48 46 45 43 38 33 27 26 27 28 30 30 29 29 29 29 29 29 29 27 25 23 21 20 19 20 20 19 15
61 65 67 71 75 75 71 66 67 66 60 54 51 50 47 45 43 39 35 31 29 27 27 28 29 29 30 29 28 27 27 27 28 28 26 24 21 19 18 17 18 17 15
65 68 71 71 66 64 65 69 69 62 56 51 49 48 46 43 40 36 33 30 28 27 28 27 27 28 28 27 27 26 26 25 27 28 28 27 24 20 17 16 15 15 15
69 67 63 60 59 64 70 72 68 60 53 49 48 45 42 41 39 34 31 28 27 26 26 26 26 27 26 26 26 26 25 25 25 26 28 28 26 23 19 15 13 13 12
61 61 60 63 63 68 74 70 63 59 55 50 46 44 41 40 37 33 30 27 27 27 28 28 28 27 26 25 25 25 26 25 24 24 25 26 28 26 22 17 14 12 11
63 65 65 67 70 73 74 65 59 55 50 48 44 42 40 39 36 31 30 29 29 30 30 28 28 27 26 25 25 25 25 25 23 22 22 23 25 27 25 19 15 13 11
65 66 68 72 75 78 68 61 57 53 47 44 42 41 40 39 36 31 30 31 31 31 30 29 29 28 28 26 25 24 24 24 24 22 21 22 23 24 25 24 18 13 13
68 71 75 79 79 71 64 60 56 53 49 45 42 40 39 37 36 32 31 31 31 30 30 29 28 28 27 27 25 24 24 23 23 22 21 21 21 22 22 24 23 17 13
73 76 80 77 71 66 64 59 56 53 50 46 43 39 37 36 35 32 30 31 31 31 31 31 29 27 26 26 26 25 25 23 21 22 21 20 20 20 21 22 24 22 16
80 82 75 68 64 61 63 60 53 52 50 46 42 39 37 36 34 32 31 30 32 32 33 32 31 29 28 27 26 25 27 26 22 22 22 20 20 20 20 21 22 23 22
80 72 65 61 58 55 56 57 53 50 46 44 41 39 37 36 34 32 33 33 32 32 33 33 31 31 30 30 29 27 26 27 27 24 24 22 20 20 19 20 21 22 22
67 61 57 54 52 51 51 50 48 45 43 42 40 39 38 36 35 33 33 34 35 33 34 33 32 33 33 32 31 30 27 27 28 28 25 22 21 22 21 21 21 22 22

GFSGL_500_spd_033.txt.gz
Wind_Speed
45 46 48 53 53 53 54 55 55 55 50 59 58 59 60 62 64 67 69 72 73 76 79 75 78 78 77 78 76 69 61 55 48 42 40 40 40 42 42 43 44 44 42
46 46 48 52 53 53 54 55 55 51 54 58 58 60 60 65 69 74 73 77 81 82 79 73 73 75 73 69 66 59 51 48 45 40 39 41 42 42 42 42 42 40 39
49 49 51 54 54 54 55 54 54 57 57 58 60 61 65 71 77 80 79 82 87 78 69 75 74 67 66 63 59 52 44 43 41 41 40 41 41 43 42 41 39 36 35
49 49 53 54 53 54 55 55 57 58 55 58 62 65 70 74 78 82 85 85 77 70 74 75 68 66 61 56 49 44 39 39 40 41 40 41 42 42 40 37 33 33 33
49 52 56 52 53 56 56 57 57 58 61 61 66 69 71 76 82 89 77 65 69 77 75 67 67 61 54 50 44 38 38 38 39 39 40 41 39 37 36 32 31 31 36
49 52 52 54 56 57 56 58 61 66 67 75 81 82 83 85 87 69 65 74 79 80 66 63 60 55 49 43 39 37 36 36 35 36 36 37 35 35 32 29 31 34 36
48 52 56 56 57 56 57 60 64 69 72 75 84 88 81 85 71 66 72 78 79 67 61 59 56 49 44 39 37 35 35 36 37 37 35 35 31 32 28 28 31 34 38
52 55 55 56 57 59 62 66 66 71 73 86 87 81 75 68 65 74 79 71 64 59 57 55 50 42 39 35 34 32 34 35 36 36 35 34 32 32 28 28 32 35 35
54 54 56 58 61 63 66 66 71 79 82 80 82 75 68 70 74 77 67 60 55 55 54 50 42 37 35 31 30 31 33 34 35 35 34 32 30 29 27 27 31 34 30
53 56 59 61 65 64 71 69 71 79 83 80 79 75 74 78 74 67 62 57 55 52 50 43 36 33 30 28 28 30 31 32 32 32 32 31 29 28 26 27 29 31 27
59 61 63 65 67 69 72 73 75 80 80 77 72 73 68 64 61 58 55 53 51 48 42 37 32 29 26 26 28 30 30 30 31 30 28 27 26 26 25 26 27 29 26
61 65 69 71 71 71 69 69 74 76 72 69 64 61 62 59 57 54 52 50 47 44 37 33 30 25 24 25 28 29 30 30 31 31 30 27 25 25 24 24 26 27 25
66 68 68 68 68 68 67 69 71 72 68 62 61 62 63 61 56 51 49 46 44 40 34 29 27 25 25 27 28 28 30 30 30 30 30 28 25 23 23 22 23 25 25
64 63 65 67 67 68 68 71 67 61 58 60 63 66 65 57 52 48 46 45 41 35 31 28 26 25 26 28 28 29 29 28 28 28 27 28 26 23 21 20 20 21 23
64 65 66 69 71 70 66 61 60 60 63 64 66 69 64 55 51 48 45 42 39 33 27 28 27 27 27 29 29 29 27 27 26 27 27 27 26 24 21 19 18 19 20
65 68 69 69 66 64 61 61 62 63 64 67 70 68 59 53 49 47 42 39 37 31 26 26 25 25 25 26 27 27 26 25 25 25 25 26 26 25 22 19 17 16 17
68 68 69 67 64 62 63 61 60 62 67 70 71 64 56 51 47 44 40 38 36 31 26 25 23 24 25 27 27 25 25 24 24 24 24 24 25 25 24 20 16 14 14
68 68 68 63 63 62 62 64 65 67 69 70 64 57 52 48 44 41 38 36 34 31 26 24 24 25 27 27 26 24 24 23 22 22 22 22 22 23 25 23 17 14 11
70 68 65 63 63 64 64 67 69 71 74 70 59 52 49 46 42 39 38 35 33 29 27 25 26 26 26 26 26 25 24 23 22 21 21 21 20 21 23 24 20 14 11
69 66 66 66 67 68 71 73 76 78 73 65 58 52 48 45 41 38 37 35 33 30 28 26 27 27 25 25 26 26 24 23 22 22 21 20 19 19 20 21 22 17 12
67 66 67 68 69 72 76 79 79 73 67 61 56 52 47 44 40 37 35 34 32 31 29 28 29 27 25 24 24 24 24 23 22 21 20 19 18 18 17 18 20 20 15
67 68 69 71 74 76 80 77 69 63 60 57 55 43 45 42 39 38 35 32 32 30 29 29 28 27 27 27 25 24 23 22 22 21 21 19 17 17 16 16 18 19 18
66 69 73 74 78 77 70 64 59 55 53 54 51 45 43 39 38 37 34 32 32 31 31 29 28 27 27 28 27 25 24 24 22 22 23 20 18 17 16 16 16 17 17
73 74 75 78 72 66 61 55 51 50 50 50 48 45 43 39 37 35 34 32 32 32 33 32 30 28 28 28 27 26 25 24 24 23 23 22 19 17 16 16 16 16 16
73 76 76 69 64 59 54 52 51 50 50 49 46 42 40 39 37 35 33 33 33 32 33 34 32 29 30 29 27 25 26 25 24 24 24 24 23 20 19 17 16 16 16
76 72 67 62 59 56 54 53 53 52 49 48 43 41 40 38 36 34 34 34 33 33 34 35 34 34 31 31 31 31 30 27 25 25 25 25 25 24 22 19 17 17 17

GFSGL_500_spd_036.txt.gz
Wind_Speed
42 41 42 47 48 50 53 52 54 55 56 56 57 59 61 62 62 65 69 70 71 73 76 77 79 78 64 70 76 73 73 71 71 67 60 53 45 40 40 41 41 42 43
44 41 42 46 48 52 55 51 54 53 55 57 59 59 59 62 63 66 72 78 84 92 93 88 76 64 70 74 76 72 69 70 67 61 52 45 41 40 40 40 41 43 43
42 43 47 50 54 54 53 54 55 57 58 60 61 61 63 65 69 73 78 81 87 96 88 62 61 69 73 76 69 67 68 67 60 55 47 42 40 40 38 39 40 40 39
41 43 47 51 51 53 55 55 59 59 59 62 64 66 69 72 75 80 80 84 89 83 68 64 70 74 69 66 66 66 62 56 53 49 42 40 40 39 39 38 36 37 36
38 41 43 49 52 54 56 58 60 61 62 66 69 70 74 78 82 85 86 87 83 66 67 72 71 69 63 64 64 61 53 51 47 42 38 38 38 38 37 35 35 32 31
46 48 48 50 54 56 59 59 61 63 65 68 71 80 80 80 82 86 89 76 71 70 76 70 64 61 62 61 57 51 48 45 39 36 35 34 34 33 32 31 32 28 27
44 45 49 51 54 56 58 61 63 66 68 72 75 82 84 85 85 84 79 74 75 72 64 59 59 58 57 55 50 45 43 40 35 34 33 34 32 31 29 28 29 26 28
44 48 52 54 54 56 60 64 68 70 72 74 77 79 82 82 80 74 74 71 64 58 57 56 55 53 52 48 43 40 36 33 33 33 34 35 33 30 29 27 26 25 29
49 50 51 54 56 59 56 60 74 71 76 77 77 76 75 73 74 71 60 58 59 57 55 53 51 49 46 41 38 33 30 30 32 33 34 35 32 29 27 25 26 24 26
48 50 53 56 53 64 66 70 69 71 73 75 77 72 72 73 62 61 60 63 62 56 52 49 48 45 42 37 32 28 27 29 30 32 34 34 32 29 27 25 24 24 25
50 55 59 62 64 65 64 66 69 71 74 73 72 68 58 59 62 62 63 65 60 53 50 46 44 41 37 32 28 26 27 29 30 31 32 31 31 30 27 26 25 23 24
55 59 62 64 62 62 65 67 70 72 73 72 65 62 60 60 59 62 65 65 58 50 48 45 42 37 33 30 27 27 29 29 30 31 31 30 29 30 29 27 24 24 23
60 63 63 60 62 64 68 70 71 72 72 67 62 61 59 62 63 65 67 63 54 48 45 43 40 35 31 28 28 28 29 30 30 30 30 30 29 28 28 27 25 23 24
63 60 59 62 66 69 71 72 72 72 68 66 64 61 61 63 66 68 68 59 51 45 42 40 37 34 29 28 28 28 28 28 28 29 28 28 28 27 27 26 24 23 22
58 60 63 67 70 71 72 73 73 71 68 66 64 64 64 65 68 70 66 53 48 42 39 38 37 33 29 28 26 25 26 27 27 28 26 26 27 26 26 26 24 22 20
61 65 68 70 72 73 74 73 72 70 68 66 67 67 68 71 72 71 61 49 44 40 36 37 35 31 28 27 25 25 26 27 27 26 25 24 25 24 25 25 25 21 19
64 68 71 74 76 76 76 74 71 66 67 67 68 71 74 75 74 66 55 47 42 38 35 35 32 29 26 26 26 26 26 26 26 25 24 23 23 23 23 23 25 24 18
69 72 75 76 76 76 74 73 71 69 67 66 70 74 76 76 68 58 50 44 40 37 35 34 32 29 26 26 26 24 23 24 25 25 23 22 21 21 21 20 22 25 20
74 77 79 80 81 80 75 70 68 68 71 72 74 75 69 65 59 51 46 41 38 35 34 33 32 30 27 26 25 24 23 24 24 24 23 22 21 19 19 17 19 22 21
77 79 80 81 78 74 69 68 71 74 73 74 72 65 61 57 52 44 41 39 37 34 33 32 31 30 28 26 24 24 23 23 23 23 23 22 20 19 17 16 17 18 20
81 81 81 79 73 69 72 74 73 73 74 68 63 57 52 50 49 36 36 37 36 34 33 32 30 29 28 28 25 24 24 24 23 23 23 22 20 19 16 15 15 16 17
81 79 75 70 71 72 72 73 75 71 64 60 55 50 50 49 46 40 36 35 35 34 33 33 31 30 29 28 27 24 24 24 24 22 22 21 20 20 18 15 15 14 14
74 71 72 72 73 75 76 73 66 62 58 55 52 51 50 49 46 42 39 36 35 33 34 33 32 31 31 29 29 27 25 25 25 23 22 21 20 20 19 16 14 14 13
71 72 73 76 77 74 68 65 61 56 54 51 51 51 50 49 46 42 40 37 35 33 34 34 33 31 32 32 30 29 27 26 25 23 23 23 21 20 19 18 16 14 13
73 76 78 74 70 70 66 61 58 55 53 51 50 51 51 49 46 43 40 36 34 33 35 35 34 32 32 32 32 31 29 28 24 22 23 24 23 21 21 20 18 17 15
78 76 73 74 71 65 61 58 56 55 52 51 50 50 49 47 46 43 35 33 33 32 33 35 34 33 32 31 32 33 31 30 29 28 26 24 23 23 22 22 22 20 19

GFSGL_500_spd_039.txt.gz
Wind_Speed
40 39 41 40 45 48 47 53 54 54 52 52 57 58 62 62 64 65 67 71 74 77 81 86 88 90 86 86 75 73 74 76 75 68 68 70 70 66 61 59 55 49 47
41 42 44 43 41 45 54 57 54 50 52 56 60 60 65 66 67 69 73 74 78 83 88 90 87 87 81 73 72 75 79 74 69 67 68 64 59 56 55 53 48 46 44
37 36 38 41 45 48 53 51 50 55 56 61 61 63 66 68 71 74 78 82 85 88 90 95 89 81 77 75 78 73 68 68 69 65 58 54 51 51 50 47 44 42 42
35 38 43 40 47 53 54 53 56 56 59 62 62 66 69 71 77 81 82 85 89 92 93 87 79 75 77 77 67 66 66 63 61 56 50 48 47 46 45 42 39 39 39
40 37 47 45 47 53 53 55 56 60 60 60 63 66 72 75 82 83 86 89 88 87 82 79 78 70 64 63 64 64 61 56 53 48 45 43 41 41 40 40 40 37 36
44 48 51 46 51 53 54 57 60 60 62 64 65 69 75 78 88 84 84 85 83 79 79 71 66 65 63 61 59 56 53 50 46 43 39 38 38 37 36 38 37 34 32
47 50 50 48 52 57 59 57 56 59 62 67 69 69 80 79 80 82 82 79 75 68 68 64 63 66 62 59 55 52 49 46 42 39 34 35 34 34 34 35 35 32 32
50 51 50 53 54 55 56 56 59 63 64 65 73 73 75 77 78 79 78 73 69 65 61 64 65 68 60 55 52 50 45 42 38 35 33 33 34 34 35 34 31 30 31
52 53 53 52 52 53 50 55 65 70 68 66 69 72 74 76 79 78 73 68 63 61 63 65 67 66 57 53 49 45 41 39 34 32 32 33 34 34 34 31 29 28 28
53 53 51 50 49 51 58 65 66 63 66 68 70 73 77 78 76 72 71 66 61 62 65 67 68 61 53 49 45 42 38 35 33 33 33 33 34 35 33 33 30 27 27
53 51 51 51 55 59 62 63 62 65 67 70 74 77 77 74 71 68 67 64 63 62 64 68 66 58 50 46 43 39 35 33 33 33 33 33 34 33 32 34 33 29 26
52 51 53 56 60 62 60 60 63 67 71 75 77 76 74 73 70 69 66 64 62 63 66 67 63 53 47 42 40 37 33 32 32 33 33 33 32 30 31 33 33 33 30
53 55 58 61 62 59 60 63 68 72 76 77 76 76 74 72 70 69 67 65 64 66 67 65 56 49 44 40 38 35 33 31 31 30 30 30 30 29 29 30 32 32 31
57 60 62 63 61 61 64 69 73 76 77 78 78 77 74 71 68 68 67 66 68 70 68 60 49 44 42 38 35 33 32 29 29 28 29 29 29 28 28 28 28 29 30
61 63 64 62 62 64 69 74 77 78 79 80 79 77 73 68 64 66 68 70 71 70 64 52 43 41 40 36 34 32 30 27 28 29 29 28 27 27 27 26 26 28 28
65 66 65 64 66 70 74 76 78 79 80 79 77 73 68 67 67 69 70 70 69 62 54 44 39 39 38 35 33 31 29 27 28 28 27 26 25 25 26 25 24 26 25
67 64 63 66 71 75 78 80 81 80 79 73 67 67 71 72 71 74 71 68 60 54 47 40 37 37 36 34 32 30 28 27 27 26 25 24 25 25 24 23 23 23 25
64 65 67 71 75 78 81 84 86 85 79 69 65 68 69 73 73 71 65 59 53 46 43 38 35 35 35 33 31 29 28 27 27 25 24 24 23 23 23 22 21 20 21
66 69 73 76 80 84 86 85 80 75 73 71 68 68 72 70 66 59 55 52 47 41 40 36 34 35 34 33 31 29 28 27 25 23 23 22 22 22 21 21 19 18 18
71 74 78 81 84 84 81 76 75 74 73 75 74 69 63 60 56 52 48 45 44 39 36 36 35 34 33 33 30 29 28 26 24 22 22 21 20 20 20 20 18 17 16
76 79 82 83 82 78 75 74 74 76 77 71 66 64 61 57 50 46 45 44 42 37 34 34 33 31 31 32 29 30 28 27 25 23 22 21 19 19 18 19 18 17 15
80 82 82 78 75 74 74 77 78 73 71 69 64 57 54 51 48 45 44 44 42 39 34 32 33 30 30 31 31 30 29 28 27 26 24 22 21 19 19 18 18 17 15
80 77 73 73 73 76 76 72 72 72 66 60 56 53 50 49 47 45 45 44 41 38 35 34 32 31 29 32 30 31 31 29 30 27 25 24 22 20 18 19 18 17 16
71 71 72 74 76 72 71 71 68 64 62 60 57 52 48 46 44 45 46 45 41 39 36 36 33 31 31 32 30 30 33 32 31 29 27 25 22 20 19 18 18 19 17
69 72 76 75 73 74 71 69 64 63 62 58 52 48 45 45 46 46 44 47 41 42 39 35 32 31 32 33 34 31 33 33 32 32 29 27 24 20 19 19 18 18 20
74 74 75 77 77 73 67 62 61 61 59 55 53 54 55 51 47 44 42 45 42 37 35 33 30 29 31 33 34 33 32 34 34 32 32 30 29 27 23 21 19 19 19

GFSGL_500_spd_042.txt.gz
Wind_Speed
33 36 38 38 39 36 37 40 44 53 57 61 62 60 58 63 65 67 67 68 72 76 80 84 87 90 87 90 90 87 81 79 74 68 71 71 70 68 64 62 59 55 53
37 38 38 39 35 36 40 48 54 57 62 63 59 57 67 66 69 70 72 73 76 79 80 86 90 89 89 87 84 79 75 73 71 66 67 66 61 59 56 52 49 49 47
38 36 38 37 39 47 48 53 55 57 60 62 60 64 65 66 68 69 71 76 81 81 87 86 86 87 85 82 76 71 66 70 68 63 59 56 53 52 47 46 45 44 44
37 38 39 40 45 44 50 56 60 59 62 64 63 62 63 67 67 70 77 80 79 85 85 85 85 83 79 75 66 67 67 70 63 59 55 52 50 46 44 42 40 43 42
37 37 40 42 47 49 51 55 57 59 60 63 67 63 59 65 71 72 75 79 83 83 83 82 80 77 73 67 64 67 69 67 59 55 53 49 45 41 39 40 41 40 39
42 42 43 46 48 51 54 55 55 56 63 58 61 64 64 68 73 74 77 78 80 80 80 80 76 73 66 64 63 67 70 63 56 52 49 45 39 37 36 38 40 37 35
46 46 47 48 50 53 55 57 55 56 55 55 62 62 74 75 74 74 78 79 78 79 79 76 72 67 65 64 64 67 68 59 52 48 45 41 35 35 36 37 38 36 37
47 48 48 50 53 55 56 56 55 52 59 59 66 75 76 75 74 76 78 78 79 78 76 72 68 66 65 63 64 66 64 54 49 45 42 37 34 35 37 36 36 34 35
48 49 50 53 55 57 57 56 54 54 57 63 71 73 71 73 76 78 78 80 79 77 73 69 67 66 65 64 65 66 59 51 45 42 39 35 34 36 37 35 35 33 32
49 51 53 55 56 57 56 55 57 60 64 66 68 69 72 74 77 79 80 81 79 76 72 68 67 65 64 65 66 62 54 47 42 40 37 34 34 35 36 35 33 31 32
51 53 54 56 56 55 56 58 61 64 66 67 68 70 74 77 79 80 80 80 77 74 69 66 66 65 66 66 65 55 50 43 40 37 34 33 34 33 33 34 34 32 31
53 54 55 55 56 57 59 62 65 66 66 67 69 72 76 79 81 81 80 79 75 70 66 64 64 67 68 65 58 51 45 40 38 35 32 32 31 31 31 32 32 31 32
55 56 57 58 58 60 63 66 68 67 67 69 72 76 78 81 83 81 79 75 70 66 63 65 67 67 66 59 50 47 41 37 36 33 31 31 29 30 31 30 30 29 31
57 59 60 60 61 64 68 69 68 67 69 73 77 81 83 84 83 78 75 69 66 68 68 64 65 65 60 53 46 42 38 35 34 31 30 28 30 30 30 27 27 27 28
61 61 61 63 66 69 69 67 68 70 75 78 82 85 87 86 80 73 68 69 69 69 70 68 64 57 53 47 42 39 36 33 31 29 28 27 29 29 28 26 25 26 26
60 61 64 68 70 70 68 68 72 75 78 82 84 86 85 81 75 71 69 69 70 70 70 61 54 52 46 41 39 37 34 32 30 27 26 26 27 26 26 25 24 24 23
62 66 70 71 69 69 71 73 74 77 81 82 82 79 77 75 73 75 76 71 64 60 57 51 48 44 41 38 37 37 33 32 29 25 26 25 25 25 24 23 23 22 22
68 72 71 69 70 73 76 80 83 86 86 83 79 76 75 77 76 71 66 64 59 55 51 46 41 36 38 38 36 35 32 31 29 25 25 25 23 23 22 22 20 20 19
73 72 71 72 75 78 82 84 86 86 83 82 79 76 74 69 69 67 63 59 53 48 43 40 36 36 35 37 35 34 31 29 28 27 26 24 21 21 21 21 19 17 17
74 72 74 76 79 82 84 85 83 82 81 81 79 73 69 65 60 54 50 49 47 44 42 39 35 34 34 36 35 32 29 27 27 28 27 23 20 20 20 19 18 16 15
73 74 77 80 83 84 83 81 81 82 81 78 76 73 68 62 56 54 50 45 43 41 40 39 35 35 32 33 32 28 27 26 27 28 29 24 20 20 20 19 18 17 15
76 77 80 82 82 80 79 80 81 80 79 77 73 66 60 56 55 51 45 41 39 39 39 38 37 34 31 29 29 27 27 25 28 29 29 27 22 20 20 19 18 17 15
78 80 81 79 77 77 79 80 79 79 76 71 64 58 53 53 51 46 42 40 39 38 38 37 35 33 32 30 28 27 26 23 26 29 29 28 26 21 19 19 18 17 15
80 78 75 74 76 76 76 77 76 70 66 63 57 54 53 54 50 47 47 46 45 43 40 39 36 33 31 29 26 27 29 26 26 28 31 30 27 24 20 18 16 16 16
74 71 72 74 73 72 74 73 67 67 64 58 54 54 54 53 51 49 46 42 38 37 38 43 36 36 35 30 25 28 32 31 29 30 30 30 29 27 22 20 18 16 17
68 70 72 69 70 72 72 67 67 64 60 56 54 53 52 50 48 46 43 39 34 34 39 46 41 42 39 30 25 25 30 34 33 32 32 31 30 28 27 25 23 21 18

GFSGL_500_spd_045.txt.gz
Wind_Speed
30 31 33 35 35 33 33 35 33 38 47 52 53 55 62 62 64 62 66 67 71 73 71 76 78 78 81 84 85 86 86 87 85 77 70 71 73 72 64 58 54 52 50
33 36 34 36 37 38 39 39 41 44 47 47 52 61 66 67 64 66 69 66 73 70 75 79 80 82 84 84 83 84 85 84 78 70 65 69 71 66 58 54 52 49 45
33 33 35 36 38 40 38 37 41 47 51 54 56 58 47 67 64 69 66 70 70 73 80 80 83 82 83 84 84 84 84 76 70 65 64 67 68 60 53 51 47 44 41
34 34 35 37 35 38 39 42 47 50 52 55 56 58 61 63 66 67 69 65 73 77 81 87 81 82 84 84 85 82 77 70 66 64 63 67 64 54 50 46 41 40 39
33 34 35 35 37 39 42 45 48 50 53 55 57 59 61 61 61 66 67 73 76 77 86 85 82 84 84 85 81 77 72 66 64 63 63 65 59 50 47 42 38 37 40
34 36 39 40 42 44 46 48 50 52 55 58 58 58 57 56 69 70 73 78 79 90 87 82 84 85 85 82 78 75 67 65 62 63 64 62 54 48 44 39 36 37 39
36 39 41 43 45 47 49 51 53 54 56 57 58 58 58 60 63 70 75 79 84 83 81 84 85 84 83 79 76 70 64 62 62 63 63 58 49 45 41 36 36 37 39
39 42 44 46 48 49 51 53 54 56 57 57 58 58 61 67 71 75 77 78 78 79 82 84 85 85 81 77 70 64 62 61 64 64 61 53 46 43 38 34 35 36 37
42 44 46 48 50 52 53 55 57 57 59 60 61 63 66 71 73 75 75 75 78 81 84 85 85 83 78 72 64 60 61 64 65 61 56 47 42 40 36 33 34 34 34
45 47 48 50 52 53 55 57 57 59 59 60 62 66 69 72 74 73 75 76 79 83 85 85 82 76 69 64 61 62 64 66 63 58 50 43 39 37 34 32 32 32 33
47 50 52 53 54 56 57 58 59 59 60 62 65 69 72 72 71 73 76 80 83 86 87 82 75 68 64 63 65 64 63 64 60 52 44 40 38 35 32 31 31 32 32
51 52 53 54 56 57 58 59 58 59 62 66 68 70 71 72 75 77 81 85 87 88 83 75 68 67 66 65 64 65 64 62 53 46 39 37 35 33 30 29 31 32 33
53 55 56 57 58 59 58 58 61 65 67 69 70 71 72 75 78 82 86 87 86 84 76 70 69 68 67 68 68 62 58 52 47 40 35 35 33 30 28 28 30 31 31
57 59 59 59 60 60 60 62 66 70 71 71 73 75 76 79 83 86 87 85 80 77 75 74 72 70 68 65 58 53 50 45 42 35 33 33 31 28 27 26 29 29 28
61 61 61 61 60 60 62 66 70 73 74 76 78 81 83 85 87 89 88 85 80 77 74 72 68 63 58 56 51 49 45 42 38 32 32 30 29 26 25 26 26 27 26
61 61 61 60 60 63 67 72 76 77 77 79 81 84 87 88 87 86 84 82 78 72 68 66 64 60 54 51 47 44 41 37 34 32 29 28 27 24 24 25 25 25 24
61 62 59 60 64 68 72 75 77 77 78 81 84 85 86 86 86 86 82 76 72 72 66 58 53 47 44 43 40 38 38 34 32 30 27 27 26 22 23 24 24 23 22
64 62 62 65 70 73 78 80 81 81 82 84 85 86 85 86 86 83 80 78 72 65 58 52 47 42 40 37 35 33 35 34 29 27 27 26 25 22 22 23 22 21 20
65 65 69 72 75 80 82 82 82 83 84 85 85 85 85 82 80 79 74 70 63 54 49 49 45 40 38 35 32 33 33 32 30 27 26 25 23 22 22 21 20 19 19
68 71 74 77 80 81 81 82 83 84 83 84 85 84 78 75 71 65 65 57 50 48 47 41 39 38 36 33 34 33 32 32 31 26 26 24 23 23 22 20 19 18 18
72 75 78 79 80 80 81 82 82 80 81 82 80 77 76 70 64 61 57 50 46 46 42 36 34 35 35 34 32 32 31 32 29 25 26 26 24 23 23 20 19 17 17
76 79 79 79 79 80 81 78 77 79 79 75 74 73 72 68 64 60 55 50 48 44 40 39 37 35 36 35 33 32 30 30 27 25 26 27 26 24 25 22 19 17 16
79 78 78 77 79 78 74 74 77 76 72 72 72 71 67 64 62 58 54 50 47 43 40 38 38 38 35 32 29 29 28 27 25 25 27 28 27 26 25 23 20 17 16
76 75 77 77 74 70 72 75 74 69 69 70 71 68 64 62 58 55 51 48 45 42 38 36 34 31 29 30 30 29 25 24 23 24 25 27 27 27 25 24 22 18 15
75 77 75 71 69 70 73 73 69 66 68 70 71 66 63 59 55 52 49 46 43 39 36 34 31 35 35 36 36 30 24 23 30 30 29 30 29 29 27 25 23 21 17
76 72 67 68 70 72 72 69 66 66 68 70 70 65 60 56 51 48 45 43 40 38 35 33 29 34 41 40 33 37 33 27 29 33 32 32 31 30 28 27 25 24 21

GFSGL_500_spd_048.txt.gz
Wind_Speed
25 28 31 33 34 36 34 36 37 36 38 40 40 48 49 58 60 59 53 61 60 66 75 77 71 74 72 77 82 82 86 85 84 86 89 90 90 81 74 67 65 67 65
30 33 34 35 36 36 38 38 38 37 38 40 44 50 53 59 58 59 56 56 64 76 74 72 75 80 79 79 85 90 89 88 88 88 89 87 81 73 65 63 65 66 60
35 35 36 38 39 39 39 39 35 39 44 46 49 51 54 55 58 60 62 64 66 67 68 74 79 76 80 87 91 94 87 89 89 89 87 80 73 66 61 62 64 63 55
36 37 38 38 37 39 39 38 40 42 43 47 49 52 55 58 60 63 64 65 67 66 67 72 77 84 87 92 91 85 88 88 88 86 81 73 66 61 60 63 62 58 50
36 37 37 37 37 37 37 39 40 43 45 48 50 55 56 57 61 63 64 64 61 72 72 79 83 86 87 86 83 86 89 88 84 78 72 65 60 60 63 63 60 52 47
34 34 35 36 37 38 40 43 45 47 49 52 54 57 58 60 61 63 64 65 67 71 75 81 83 84 82 82 83 86 85 81 77 69 63 60 60 63 62 61 56 47 43
33 34 35 37 39 41 43 45 48 50 53 54 57 59 60 61 62 63 65 67 70 74 78 80 80 80 80 83 85 86 82 76 69 63 60 60 63 63 61 58 50 44 40
33 35 37 39 41 43 46 49 51 53 54 57 58 59 61 63 63 65 67 70 73 75 76 77 78 80 82 84 86 84 77 69 62 61 62 61 62 61 59 53 45 41 38
35 37 39 42 45 47 50 52 54 55 57 59 61 62 62 62 64 67 70 71 72 74 77 79 80 83 85 86 84 77 69 64 64 62 62 62 63 60 55 47 41 38 35
37 40 43 46 49 51 53 55 56 58 59 60 61 61 61 62 66 68 70 73 76 78 79 80 83 84 84 83 77 72 66 66 67 65 62 64 61 55 47 41 38 36 34
41 45 48 50 52 53 56 58 59 59 60 60 60 60 61 64 67 71 75 78 80 80 82 84 86 86 81 77 73 70 69 69 68 66 63 59 53 47 40 35 35 34 32
47 50 52 53 54 56 58 59 60 61 61 60 60 63 66 70 73 76 79 82 84 86 86 87 87 83 78 73 72 69 66 65 61 59 54 51 47 41 35 32 32 31 29
52 53 54 55 58 60 61 62 62 62 61 61 63 66 70 75 78 81 82 83 84 87 87 86 84 79 75 71 66 64 62 63 57 52 49 45 40 36 32 31 30 29 27
53 54 57 60 62 63 63 63 64 62 62 64 68 72 77 82 85 86 87 87 87 87 87 85 81 76 72 70 66 62 59 57 52 48 46 42 35 32 30 30 28 27 26
55 58 60 61 62 62 63 66 65 64 66 70 74 78 83 87 88 89 90 91 92 90 89 81 75 72 67 62 55 51 50 47 45 43 41 36 31 29 29 28 26 25 24
58 60 61 61 62 64 66 65 65 69 72 77 80 84 89 90 91 91 91 91 90 87 81 75 69 65 60 50 46 44 42 41 39 39 37 32 27 27 28 27 25 23 24
59 60 61 62 66 67 67 67 71 73 77 81 85 88 89 90 89 89 89 88 85 81 76 70 66 60 49 43 42 41 38 36 35 35 35 28 24 26 26 25 23 23 23
60 61 63 67 68 68 69 71 75 79 83 86 88 88 89 87 88 89 88 84 78 76 73 66 61 53 45 42 40 37 34 32 32 32 32 26 24 25 26 24 23 22 22
63 64 67 67 70 70 73 76 79 83 86 87 88 88 86 86 86 84 80 77 75 72 65 61 56 49 44 40 36 34 33 30 30 30 30 26 24 25 25 24 23 22 21
68 68 68 69 72 74 77 80 83 85 86 86 86 84 83 82 79 75 73 72 71 66 61 56 52 46 42 37 35 33 33 32 31 31 29 29 24 25 25 24 23 22 20
69 70 72 74 76 79 81 83 84 83 84 83 81 80 81 78 73 71 69 69 66 62 58 53 46 41 38 36 35 34 33 32 32 31 29 26 24 25 26 25 24 22 19
73 74 75 77 80 82 83 82 81 82 80 77 77 78 77 73 70 68 68 69 66 60 55 48 42 38 35 34 36 36 37 35 34 33 29 26 24 25 27 26 24 22 20
76 77 79 81 83 82 81 80 80 77 74 74 77 76 73 71 67 65 67 68 63 57 50 44 40 36 33 32 32 35 35 31 27 27 27 24 24 26 25 26 25 22 21
79 80 81 81 81 80 80 78 74 72 73 75 75 74 72 67 64 65 67 65 59 52 46 41 36 34 31 29 29 29 25 24 29 29 26 25 26 23 25 26 25 24 22
81 81 80 80 80 79 77 74 72 73 75 75 74 73 69 64 64 66 66 60 53 47 43 39 36 33 31 27 28 32 32 31 30 25 24 26 25 28 26 27 27 26 24
81 80 81 81 79 77 75 74 75 76 75 74 73 69 65 66 66 65 60 54 48 44 40 40 38 36 31 27 27 36 37 35 34 27 22 32 31 29 28 28 29 28 26

GFSGL_500_spd_051.txt.gz
Wind_Speed
21 24 24 26 29 33 35 36 38 38 39 41 42 39 41 44 48 52 54 56 58 65 71 66 68 70 72 72 73 76 78 76 87 90 92 89 88 88 89 90 86 83 74
25 26 29 32 34 36 37 39 40 40 42 42 41 41 43 45 54 45 49 57 72 68 63 73 71 75 73 73 76 77 84 89 91 90 86 85 86 87 88 87 80 67 60
30 33 36 37 38 37 39 41 41 41 42 43 42 43 44 48 53 54 56 59 66 67 65 73 74 74 73 74 78 81 85 87 86 85 84 86 87 87 85 79 70 60 58
34 37 39 40 39 39 41 41 42 43 43 43 44 47 48 52 53 57 60 61 62 65 67 72 73 73 74 77 80 83 82 83 84 85 86 87 87 81 75 68 61 59 59
38 39 39 39 39 40 40 41 42 42 43 45 47 50 53 54 57 59 62 64 65 67 69 70 70 72 76 78 78 78 81 84 86 87 87 84 80 70 65 63 63 60 58
36 37 38 38 39 39 39 40 41 43 45 48 51 54 56 58 60 62 64 65 67 67 66 68 70 70 72 75 77 80 83 85 85 83 80 75 68 65 62 64 63 61 60
34 34 36 36 36 37 39 41 43 46 49 52 55 57 59 61 62 64 66 66 65 63 63 65 68 72 75 78 80 82 84 85 85 79 74 67 67 64 66 65 64 63 60
34 35 35 36 37 39 41 44 47 50 53 55 57 59 62 63 65 65 65 64 63 64 67 69 74 77 80 82 84 87 87 86 81 77 71 67 67 67 66 66 64 60 53
34 34 35 37 38 41 44 47 51 53 55 57 60 62 64 65 65 66 64 64 64 65 70 74 80 83 85 86 87 87 85 82 75 75 73 68 64 61 60 61 57 54 45
33 34 36 39 42 45 48 51 53 55 57 61 63 64 65 66 66 66 66 66 69 71 75 79 85 87 86 86 87 86 84 78 74 72 70 64 60 57 55 54 51 46 41
35 37 40 44 47 49 51 52 55 57 60 63 63 63 65 66 67 66 68 72 74 76 80 85 89 90 90 90 88 84 79 74 72 71 66 64 61 56 50 46 45 40 37
39 43 46 49 50 51 52 55 58 60 61 61 62 64 66 66 67 68 71 75 79 83 86 90 93 93 92 88 84 77 73 71 69 63 60 56 56 50 47 45 41 34 31
46 49 51 52 52 52 55 58 60 61 60 60 63 64 64 65 69 71 75 79 83 87 90 93 93 92 89 85 77 72 69 65 60 54 49 46 45 44 41 39 36 32 29
52 53 54 53 53 56 58 60 62 63 63 64 64 64 67 71 75 78 80 83 87 89 93 94 92 90 87 81 74 69 63 59 52 46 41 40 39 36 37 33 32 29 26
56 57 56 54 55 57 59 61 61 62 64 66 68 69 72 76 80 83 86 89 91 94 97 94 93 90 84 76 70 64 58 53 44 37 37 36 33 33 33 28 29 27 25
59 57 52 52 56 60 62 62 63 65 67 70 73 75 77 79 83 86 89 92 94 94 92 91 87 82 76 71 66 58 52 46 39 36 35 32 30 33 30 27 29 25 23
62 57 55 58 62 63 63 65 66 67 71 73 76 78 80 83 86 88 91 93 92 90 89 85 80 75 70 68 61 54 47 42 38 33 31 28 30 32 28 27 27 24 22
69 65 63 65 64 64 67 69 69 71 73 75 77 80 83 86 87 88 89 88 86 86 83 78 73 69 68 65 57 51 42 38 34 28 27 28 28 28 27 25 24 22 22
73 69 64 65 67 69 70 71 72 75 76 79 82 84 85 86 87 87 84 83 84 82 77 72 67 67 68 63 54 44 37 32 26 30 28 26 27 28 25 24 22 22 22
70 64 67 67 72 73 72 73 74 77 80 83 84 84 85 86 84 81 79 81 80 77 72 66 66 68 68 58 48 39 33 33 33 31 29 29 30 29 26 23 22 23 23
60 69 71 76 76 77 74 74 78 80 82 82 84 85 84 82 79 77 80 79 76 72 65 64 67 69 62 52 43 36 32 33 36 34 31 30 30 29 25 22 23 24 24
69 70 74 78 79 77 78 80 82 83 83 83 84 84 81 77 76 78 78 76 74 68 64 65 67 63 54 45 38 34 30 32 36 35 33 32 32 28 24 22 23 25 24
72 74 77 79 79 80 81 83 83 83 84 84 83 80 78 78 78 78 76 74 69 66 66 66 63 54 47 39 35 32 29 28 32 34 38 34 29 27 23 22 24 24 24
76 77 78 79 81 83 84 85 84 84 83 82 81 80 79 79 79 76 73 70 66 66 66 64 55 48 41 37 35 32 29 26 31 37 35 24 24 24 21 22 23 23 24
75 77 79 81 83 84 84 84 84 84 83 82 82 82 81 79 76 74 71 67 66 65 63 57 48 43 37 36 35 32 28 26 28 32 25 25 28 26 24 24 22 24 24
78 79 81 83 84 85 85 84 84 84 84 84 84 83 80 76 74 70 67 65 65 62 56 48 44 39 35 35 35 31 26 25 33 33 33 30 25 26 29 27 26 25 25

GFSGL_500_spd_054.txt.gz
Wind_Speed
22 26 25 24 23 24 25 26 29 30 33 36 36 36 39 41 42 42 42 44 51 45 53 63 68 70 71 72 69 72 78 84 78 75 76 79 81 84 85 87 88 87 85
30 32 26 28 29 30 31 32 34 36 36 39 39 40 41 41 43 44 47 50 52 57 59 62 64 66 69 70 71 72 74 75 75 72 74 77 81 84 86 87 87 85 83
32 31 28 28 33 33 36 37 38 38 39 41 41 42 43 44 45 47 50 53 56 58 61 63 65 68 69 69 70 69 70 71 74 76 77 80 83 87 88 89 88 84 78
35 35 36 36 36 39 41 39 39 40 41 41 42 44 44 46 48 52 54 57 58 61 63 66 67 68 70 70 68 68 70 73 77 82 84 85 87 87 88 86 85 76 70
38 36 40 40 41 40 38 39 40 42 42 43 43 44 45 49 52 55 57 59 61 63 65 67 69 70 68 67 69 69 73 76 81 85 88 88 87 85 82 78 77 71 67
37 39 38 37 37 38 38 40 41 41 41 41 43 46 49 52 54 56 58 61 63 64 66 67 68 68 67 67 70 73 78 82 85 88 87 87 85 81 77 73 70 68 67
31 33 34 36 36 37 38 38 38 39 41 43 46 50 52 54 56 58 61 63 64 65 66 67 68 69 71 75 78 80 82 85 89 87 87 84 81 76 75 71 69 66 62
33 34 33 34 35 36 36 37 39 41 44 47 50 52 53 56 58 62 63 64 64 65 66 66 68 70 74 78 81 82 85 88 89 90 89 85 78 72 69 70 68 63 59
34 34 35 37 36 37 38 40 42 46 49 51 52 54 56 58 62 63 64 65 65 64 64 67 71 73 76 80 84 87 90 93 91 90 86 80 74 70 67 65 62 58 55
35 36 38 37 37 39 41 44 47 50 52 53 55 57 59 61 61 63 65 65 64 63 66 69 73 76 79 84 88 92 95 94 93 88 80 73 69 66 64 61 54 52 48
36 37 37 38 40 42 46 49 52 55 56 56 58 60 62 62 64 65 65 65 65 67 70 74 78 81 84 87 91 95 95 94 90 84 74 67 64 61 59 51 47 46 42
36 37 39 42 44 48 51 55 57 57 58 58 61 63 64 65 66 65 65 66 69 73 76 79 82 84 88 90 94 96 95 91 85 77 68 60 55 53 49 46 41 40 37
38 41 44 47 50 54 57 57 60 61 59 59 60 62 65 67 67 66 67 71 75 78 80 83 85 88 90 92 94 92 90 83 77 70 64 56 50 45 41 39 35 36 33
43 46 50 53 56 58 59 57 62 60 58 58 61 64 66 67 67 69 72 75 78 80 82 85 87 89 92 93 91 88 80 74 69 64 60 51 45 38 33 32 31 29 29
48 51 54 57 59 60 58 61 67 64 63 64 63 65 68 69 72 75 77 78 81 81 84 87 89 92 92 91 87 80 73 65 63 63 56 46 39 35 32 28 26 28 27
55 57 61 62 62 63 63 64 65 69 71 71 70 71 74 78 81 81 81 83 83 83 86 89 91 92 91 87 79 70 63 62 65 61 50 41 34 31 29 27 26 25 26
62 65 64 63 63 66 67 68 71 77 73 70 73 76 79 83 84 83 84 85 85 86 88 89 88 87 84 78 72 65 60 63 66 55 42 34 29 26 25 26 26 25 25
64 65 63 60 56 63 70 73 74 74 69 73 78 78 80 81 82 84 86 85 86 87 86 85 84 81 77 73 68 63 62 65 58 43 32 27 24 24 25 27 27 24 22
64 62 62 62 69 69 72 70 69 75 79 82 85 85 84 83 86 88 88 88 87 85 83 82 80 78 74 70 64 63 64 60 46 35 28 20 25 28 25 22 23 23 22
63 64 57 61 69 71 71 68 71 77 81 84 85 86 85 87 88 88 89 87 84 83 82 80 77 74 71 66 63 62 60 48 37 31 28 31 32 28 25 26 27 22 22
68 66 66 66 70 70 71 73 77 81 82 83 85 86 87 88 88 87 85 83 83 83 81 79 75 72 68 63 62 61 51 40 33 28 29 37 37 33 28 30 25 24 22
61 64 70 73 72 72 74 78 81 81 82 85 86 87 88 88 86 85 83 84 83 82 80 77 73 68 64 62 60 54 43 35 30 28 30 38 36 34 29 26 25 22 21
66 69 71 72 74 76 79 82 83 83 84 87 88 88 87 86 84 84 83 84 83 81 78 73 69 64 62 60 55 47 38 33 30 28 28 36 41 35 31 29 28 23 21
68 70 72 75 77 80 82 83 84 86 87 88 88 87 86 85 85 85 84 83 81 78 75 70 66 62 59 54 48 41 35 31 30 28 26 29 37 33 32 26 23 20 21
72 74 78 80 81 82 83 86 88 90 90 89 88 87 87 87 86 85 83 81 79 76 71 67 61 56 53 47 41 37 33 31 29 27 25 26 31 32 27 24 21 22 21
78 81 83 83 84 86 89 90 90 90 90 89 90 89 88 86 85 83 81 79 75 70 65 59 53 50 45 40 36 33 31 30 27 25 24 27 33 27 25 26 25 24 22

GFSGL_500_spd_057.txt.gz
Wind_Speed
24 23 27 28 27 28 20 17 21 24 24 26 27 30 31 32 34 35 36 38 40 42 45 48 51 54 57 59 62 65 66 68 69 68 69 70 72 74 78 81 83 86 88
26 30 28 39 30 36 14 22 21 27 29 31 32 32 34 36 37 38 40 41 43 46 49 51 53 56 58 61 63 65 67 69 69 68 69 71 73 77 82 85 88 91 92
35 18 25 28 26 28 19 27 29 33 35 32 33 35 37 38 39 41 43 44 47 49 52 54 57 59 60 63 66 67 68 68 70 71 71 75 77 81 83 86 90 91 90
28 27 28 30 34 33 32 34 38 35 34 35 36 37 39 40 41 42 44 47 49 52 54 56 59 62 65 67 68 67 66 68 71 74 77 79 82 82 87 91 91 89 87
29 32 30 32 33 38 39 39 37 36 36 36 39 40 40 42 43 45 47 50 52 55 58 60 62 64 66 68 67 66 68 70 74 77 80 82 84 86 91 91 90 86 81
32 32 34 35 34 35 36 36 36 37 37 39 41 41 42 43 45 49 51 54 56 58 60 63 64 65 67 68 66 68 70 73 77 79 81 85 87 91 89 88 85 80 76
34 34 33 35 34 34 35 36 37 38 39 40 40 42 44 46 50 53 56 58 59 62 64 65 67 69 69 66 67 70 74 77 79 83 86 88 91 92 90 86 79 75 72
36 36 36 35 33 33 35 37 37 38 39 40 42 44 48 52 55 58 60 61 63 65 65 66 69 70 69 69 71 74 77 81 84 86 89 92 93 93 88 82 75 71 68
34 34 34 35 36 36 37 38 38 39 41 43 46 49 53 58 60 61 63 64 65 64 65 68 69 69 71 74 76 77 80 82 85 88 90 92 93 88 81 75 69 66 64
34 35 36 36 38 38 39 40 41 43 45 48 51 55 58 60 62 64 64 65 64 65 67 68 69 70 74 78 81 83 84 84 87 89 90 92 88 83 73 66 63 60 59
36 36 37 39 39 41 41 42 44 46 50 53 56 59 57 59 62 63 65 64 64 66 68 68 70 74 77 80 84 87 88 89 93 95 95 90 82 73 63 58 58 53 50
35 37 38 39 41 43 44 46 48 51 55 58 60 61 62 62 61 64 67 68 69 69 70 73 75 78 81 83 87 90 92 95 97 96 91 82 73 63 58 56 51 46 45
36 39 39 40 43 46 48 50 53 58 60 63 64 66 65 64 65 66 70 76 76 76 76 78 81 83 85 87 90 91 94 96 96 92 83 74 65 60 59 57 47 39 36
40 41 42 44 47 50 53 56 60 65 69 69 68 67 67 66 67 71 74 76 76 77 81 82 84 87 87 89 91 93 94 92 89 82 73 67 61 59 60 52 40 33 31
44 45 46 50 52 55 58 62 67 69 69 68 63 64 69 72 74 76 79 76 78 82 84 86 88 88 89 91 93 94 91 86 80 74 68 62 60 61 54 39 31 27 25
49 51 53 56 59 60 63 68 67 65 67 68 66 69 75 76 75 76 80 81 83 86 89 90 91 92 94 95 95 92 86 80 75 68 63 60 59 56 40 30 27 20 27
54 57 61 63 63 64 69 69 63 61 63 66 72 75 75 77 78 76 80 85 88 91 90 92 93 95 96 95 91 86 80 74 70 64 60 58 56 41 31 26 25 26 29
59 62 64 63 63 66 66 64 64 65 68 71 74 72 76 79 80 80 83 87 89 90 91 93 95 97 94 90 86 81 76 70 65 60 58 55 44 31 26 22 21 22 23
58 59 63 65 66 69 70 72 74 77 78 77 76 77 78 79 83 85 86 87 89 90 93 95 96 93 88 85 82 78 73 68 62 55 54 46 35 27 23 22 25 22 23
64 64 67 69 72 75 76 76 77 77 77 76 77 79 80 83 86 87 88 90 92 95 96 95 91 86 84 81 78 74 69 63 58 52 47 38 30 27 29 30 27 23 19
66 73 70 70 72 73 74 75 75 75 75 77 78 81 84 85 86 88 90 93 94 93 92 88 85 84 81 78 75 71 65 60 53 47 39 33 29 29 33 35 29 28 26
71 70 68 69 70 71 71 71 72 74 76 79 82 83 84 85 88 91 92 92 92 89 88 86 83 81 78 75 71 67 60 53 48 41 33 31 28 28 33 35 38 35 29
67 67 67 66 65 66 69 72 75 78 79 80 82 85 87 90 92 93 93 91 90 88 85 83 80 76 74 71 67 63 54 47 41 35 30 27 28 29 34 35 32 25 25
61 61 61 64 68 71 73 75 77 79 82 85 87 89 92 93 93 92 92 90 87 84 81 78 75 73 70 67 62 54 47 40 35 31 28 27 27 29 37 40 37 30 27
62 65 68 71 73 75 77 81 84 86 88 90 92 93 94 93 93 92 88 85 81 78 76 74 72 69 65 60 52 45 39 34 31 29 28 27 27 27 30 41 38 31 25
68 71 73 76 78 81 85 87 89 91 92 93 94 94 93 91 88 84 81 79 78 76 74 71 67 62 56 49 42 37 32 29 28 26 25 25 24 25 26 36 36 29 23

GFSGL_500_spd_060.txt.gz
Wind_Speed
21 21 24 27 29 28 29 33 28 26 22 18 20 22 26 27 29 30 32 34 34 35 37 38 41 45 47 50 52 54 55 56 58 60 64 65 66 67 71 74 77 79 80
25 28 34 29 33 29 44 28 36 28 17 17 22 27 29 30 31 32 34 36 37 38 40 42 45 47 51 54 56 55 57 59 62 64 65 65 68 71 74 78 80 81 84
28 35 36 32 25 24 19 23 13 21 24 27 28 29 30 31 32 34 36 38 40 42 43 46 49 53 55 58 58 60 60 62 65 66 66 68 70 75 78 80 81 84 88
30 29 23 24 22 25 24 24 24 30 30 30 29 30 31 33 36 38 39 40 42 44 48 51 55 57 59 61 63 63 62 65 68 68 69 70 74 76 80 82 84 88 92
29 28 25 24 29 29 27 29 32 34 31 31 30 33 35 37 39 40 41 43 45 48 52 56 58 60 62 64 65 63 66 67 69 69 70 73 75 79 82 84 88 93 94
29 29 27 26 28 28 29 30 33 34 33 33 35 36 38 40 41 42 43 45 49 54 57 60 62 64 65 66 66 65 67 68 69 70 73 76 79 82 84 86 91 95 97
31 33 33 33 32 32 34 35 35 36 35 35 37 39 41 41 42 43 46 50 54 59 60 62 63 64 66 67 68 71 71 71 72 75 77 81 83 87 89 91 95 97 94
32 33 36 36 37 36 36 37 37 38 38 38 39 40 40 42 44 47 51 55 59 62 63 63 64 65 68 70 72 74 73 74 79 81 83 85 88 89 92 95 98 96 91
32 34 35 36 38 39 39 41 41 40 40 41 42 43 44 47 50 53 57 61 63 65 68 67 66 67 70 74 77 79 79 79 83 86 87 89 91 92 95 99 97 93 83
29 29 30 32 36 38 41 41 42 42 43 46 46 47 50 52 55 59 62 64 66 68 67 68 70 70 71 74 78 80 81 81 85 88 90 92 94 96 97 98 94 86 76
31 31 32 34 37 39 41 42 42 44 47 48 49 51 54 56 60 63 66 71 72 70 68 69 72 73 74 77 80 83 84 87 90 94 96 99 99 100 100 94 85 76 68
36 36 36 36 39 40 42 43 45 47 49 51 53 55 58 61 65 71 71 69 68 66 70 74 77 79 79 80 82 85 88 91 95 98 100 100 102 101 93 82 75 67 61
39 40 39 40 41 43 44 46 48 50 53 54 56 60 62 66 71 70 69 70 68 72 76 78 79 81 80 82 85 88 92 95 98 99 100 102 102 96 83 74 67 61 59
41 42 42 43 44 45 48 50 53 56 58 59 61 63 67 71 73 68 66 70 71 76 79 79 80 81 81 83 86 91 95 97 99 100 102 102 96 84 75 69 62 57 55
44 43 44 46 48 49 52 55 59 62 63 65 66 69 71 71 70 66 67 71 75 80 82 81 82 81 82 85 89 93 95 97 99 100 98 93 83 75 69 65 59 52 40
49 49 50 51 52 55 57 60 63 66 68 70 70 68 66 67 70 74 78 82 84 86 86 83 82 82 84 87 91 93 95 98 97 95 90 84 76 69 65 59 53 39 30
48 48 48 52 57 61 64 67 69 67 66 67 67 71 75 76 79 83 85 85 85 84 83 83 82 83 86 90 92 94 96 96 93 87 82 75 71 66 62 53 43 30 25
53 51 49 51 56 58 60 65 67 68 70 74 77 78 79 82 84 85 85 84 82 82 83 84 84 87 90 92 94 94 93 89 85 80 75 71 68 62 54 43 34 25 22
49 57 55 56 53 56 61 65 68 72 75 77 78 79 81 82 83 83 82 81 81 82 83 84 88 91 93 94 94 91 87 84 79 74 69 67 64 54 47 35 28 20 19
56 59 57 56 61 65 68 71 74 77 79 79 78 79 80 80 80 80 81 82 83 84 86 91 93 94 95 93 89 86 83 78 73 70 67 65 59 48 40 32 27 28 27
57 64 73 71 69 71 71 76 78 76 75 74 75 76 77 77 79 81 82 83 86 91 93 94 95 95 92 89 86 81 77 73 70 68 63 59 50 42 34 30 27 28 29
65 70 69 72 69 71 76 75 72 72 72 72 73 75 78 80 81 83 87 90 92 95 96 95 93 91 88 84 80 76 72 70 68 65 60 51 42 37 31 28 29 34 34
69 73 73 72 74 72 70 70 69 70 72 74 76 78 81 84 88 90 93 95 96 95 93 91 89 85 81 79 76 74 70 67 63 59 50 41 36 32 29 28 28 29 34
73 73 71 68 67 68 69 71 73 74 76 78 82 85 88 91 94 96 96 95 93 92 90 86 82 80 79 77 75 72 67 63 57 48 39 35 32 29 27 28 28 31 34
64 65 66 67 69 70 71 73 76 79 82 86 90 93 94 95 95 94 93 92 89 86 84 83 82 80 77 74 71 66 59 53 45 37 33 30 29 27 26 28 29 30 35
65 67 69 71 73 75 78 81 85 88 91 92 92 93 93 93 93 92 89 86 85 84 83 82 80 77 74 69 62 55 48 40 34 31 28 27 25 25 25 27 29 33 39

GFSGL_500_spd_063.txt.gz
Wind_Speed
21 22 23 23 26 29 29 29 28 29 31 37 38 29 27 27 30 30 32 30 33 36 39 39 39 39 40 42 44 48 52 54 56 57 59 58 58 61 63 65 67 68 71
24 27 30 34 40 36 35 33 36 37 35 33 43 30 24 26 27 30 32 35 36 38 39 40 41 41 43 45 48 52 55 58 59 59 58 60 61 63 65 67 69 71 74
27 29 35 38 41 33 28 30 20 17 25 25 17 27 21 25 28 30 36 35 37 41 41 41 42 43 46 49 53 56 59 60 59 60 61 63 66 68 68 70 71 74 79
25 25 28 31 32 22 18 17 19 21 21 24 25 24 28 29 30 33 36 38 41 41 42 42 44 47 50 55 57 60 61 59 61 63 64 66 69 71 75 75 74 79 84
32 30 29 29 28 24 24 25 21 23 25 27 26 27 29 32 34 37 38 40 42 43 44 45 47 51 55 59 62 63 61 61 63 65 68 70 73 77 78 78 78 83 85
35 31 28 27 28 27 26 27 27 28 29 32 31 32 33 35 37 40 42 43 43 44 46 48 52 55 59 61 63 65 64 66 67 68 69 72 75 78 80 83 86 90 90
26 26 27 27 29 29 29 31 31 34 34 36 36 36 38 39 41 42 45 45 46 48 50 52 56 59 61 64 67 66 67 68 69 72 72 74 75 79 83 86 90 93 96
27 28 28 28 29 31 33 33 36 37 37 38 38 41 41 42 43 45 46 47 49 51 54 57 60 63 68 68 67 68 68 71 74 77 78 77 79 82 86 90 93 97 99
28 30 30 29 30 31 32 33 35 36 37 39 42 45 45 45 45 47 48 51 53 56 59 61 63 69 69 70 69 68 71 74 77 78 78 79 81 85 90 93 95 100 103
31 32 34 35 35 35 34 34 37 39 39 43 46 47 46 47 49 51 52 55 58 60 62 64 70 72 71 70 71 74 77 79 79 79 79 80 82 86 90 94 97 101 105
35 35 37 39 40 39 38 40 41 42 44 45 46 47 49 51 53 55 58 60 62 64 66 69 74 77 75 73 74 77 80 82 84 84 83 83 85 88 92 94 99 104 105
40 39 40 41 41 41 41 42 43 45 46 48 50 52 54 55 58 60 62 64 67 69 71 75 75 74 74 74 77 82 86 89 89 87 86 85 87 91 93 97 100 101 100
43 43 44 44 44 43 43 44 45 47 49 52 54 56 58 61 63 65 67 69 71 73 76 68 70 74 77 81 86 88 89 90 87 85 84 86 90 92 97 98 98 97 87
45 46 47 47 47 48 49 50 51 52 53 57 59 61 63 65 67 70 71 74 76 71 69 77 79 82 85 87 88 89 89 87 85 85 87 90 92 97 98 98 94 85 76
40 43 46 48 50 52 53 55 56 58 60 61 63 65 67 70 73 76 76 71 72 77 80 82 85 86 87 89 89 88 85 85 86 88 90 93 96 97 95 91 83 75 70
48 49 50 51 52 54 56 58 59 59 60 61 63 64 63 65 68 71 75 77 80 84 87 87 87 88 89 89 87 85 85 86 88 90 94 97 96 93 87 80 74 70 65
47 51 53 52 53 54 57 59 58 59 60 61 63 66 69 72 75 78 80 83 85 87 88 87 87 87 87 87 86 86 87 88 92 95 96 96 92 87 79 72 68 66 60
50 48 47 51 56 54 55 60 65 67 68 67 68 68 72 76 79 81 82 84 86 85 85 86 86 86 86 86 87 88 90 94 96 96 95 91 86 78 71 67 66 63 52
52 54 56 52 55 56 59 63 63 64 64 69 71 71 75 79 81 84 86 86 85 84 84 84 84 85 86 87 89 93 95 97 97 94 89 84 78 71 67 65 61 58 43
59 61 64 61 56 56 57 61 66 70 73 76 78 78 77 79 82 83 81 81 81 81 82 84 85 87 89 93 96 98 98 96 92 87 82 76 72 68 65 63 57 47 33
50 53 51 58 60 61 62 64 68 72 77 80 80 79 81 80 77 77 78 79 82 84 85 88 91 94 97 99 99 97 93 88 85 80 76 72 69 67 62 58 49 38 30
58 59 58 60 65 68 73 75 77 79 79 79 79 77 76 77 78 80 82 84 86 89 92 96 98 100 98 97 94 91 87 83 79 77 74 71 65 63 59 52 40 31 31
63 65 70 72 74 76 78 80 77 73 73 73 74 76 78 80 82 85 87 90 93 97 99 98 96 95 93 90 87 84 81 80 78 74 70 67 62 58 50 39 33 29 29
66 68 70 73 73 71 70 71 72 73 74 76 79 81 83 85 87 91 95 97 97 96 96 94 92 89 86 85 84 83 80 78 75 72 66 58 53 46 37 31 30 28 28
65 66 66 66 67 69 71 73 75 77 79 81 83 86 90 92 93 94 94 93 92 90 89 87 87 86 85 85 83 81 78 74 69 62 53 45 38 33 29 27 27 27 27
64 66 68 70 72 74 76 78 80 83 85 87 88 89 90 90 90 89 88 87 85 84 85 85 85 84 83 82 80 75 67 60 53 45 36 31 29 27 25 24 24 26 28

GFSGL_500_spd_066.txt.gz
Wind_Speed
22 22 23 24 25 25 26 27 29 32 31 29 29 27 30 33 37 33 33 33 30 38 39 37 37 40 40 42 42 41 40 42 45 48 52 55 56 55 56 57 59 61 64
24 26 27 28 28 33 38 41 42 40 36 33 32 31 41 40 46 37 33 42 37 38 39 39 40 43 43 42 41 42 43 46 49 53 56 57 58 59 61 62 63 64 66
24 24 25 25 28 27 28 25 29 37 44 33 34 43 45 36 44 37 34 32 34 36 41 42 42 43 43 43 43 45 48 51 55 58 59 61 63 62 63 64 65 66 70
27 25 22 22 25 27 29 25 21 16 11 22 21 22 25 26 37 33 28 34 38 41 43 44 44 44 45 46 47 49 52 55 59 62 66 67 66 65 66 66 67 70 72
28 27 24 28 31 30 25 26 23 20 19 19 22 22 22 24 25 26 32 36 39 40 43 44 45 47 47 48 50 52 55 59 63 67 66 66 66 66 68 70 72 76 73
33 34 34 36 33 29 27 27 25 25 26 25 24 26 29 29 29 33 36 37 41 43 45 46 48 48 49 51 54 56 58 61 66 68 69 68 69 71 73 75 77 78 79
34 35 38 32 29 29 29 29 28 27 28 31 30 30 31 33 35 37 39 42 45 49 50 50 49 50 52 54 56 58 61 66 69 72 72 74 74 76 78 80 83 85 85
32 33 31 29 28 30 31 31 31 32 32 34 33 35 37 39 40 38 43 46 51 53 52 52 52 53 55 58 60 62 66 69 74 76 74 74 75 78 83 86 87 87 85
38 35 33 30 29 29 31 32 32 34 35 36 37 37 40 42 43 44 48 53 54 53 55 55 56 57 60 62 64 66 70 75 75 72 73 77 81 85 88 89 89 89 88
35 38 36 33 32 32 32 34 35 36 37 39 41 43 45 45 47 50 52 54 54 55 56 58 59 61 64 66 69 70 75 77 74 77 80 83 86 88 90 89 89 87 89
36 40 39 37 37 37 38 37 38 38 40 42 44 45 46 48 50 52 53 54 56 58 60 62 63 66 69 72 75 79 75 74 79 82 83 85 87 87 87 86 86 88 90
37 39 43 43 42 41 42 42 43 43 44 45 46 47 49 51 52 54 55 57 59 62 64 66 68 72 75 76 74 73 77 81 84 86 86 86 86 87 85 85 85 87 91
40 42 43 43 44 45 45 45 46 46 47 49 49 51 53 55 56 57 59 61 64 66 68 71 73 73 74 76 78 82 85 87 87 88 87 87 86 84 84 85 87 90 92
48 44 44 43 45 45 45 45 46 47 48 51 52 54 56 57 59 61 64 66 68 70 72 73 75 77 79 81 85 87 88 88 88 87 86 85 84 85 86 88 90 93 94
48 46 45 44 43 44 46 48 49 51 53 54 56 58 60 62 64 66 69 71 71 73 76 75 77 80 84 86 87 88 89 88 86 85 85 85 86 87 88 91 93 93 93
47 48 44 46 47 50 46 47 50 53 56 57 59 61 64 67 69 69 71 72 71 73 76 78 81 84 86 88 90 90 87 86 86 86 87 88 88 90 91 93 93 92 86
52 52 55 53 53 51 54 59 54 55 58 61 63 64 64 66 68 70 71 69 71 76 80 82 83 84 86 88 87 85 86 86 87 88 89 90 92 93 94 94 90 85 76
58 62 56 53 50 55 58 58 55 55 59 61 62 59 60 62 64 66 70 78 83 86 87 87 85 85 86 85 85 86 87 89 91 92 93 95 96 97 95 89 82 76 70
63 62 61 57 57 59 62 65 64 64 63 63 60 62 64 65 68 72 77 81 84 86 85 84 83 83 85 87 88 90 92 93 94 96 98 99 98 93 88 82 76 72 67
51 50 57 54 53 51 53 58 61 63 65 64 65 67 70 72 74 78 82 84 83 81 80 82 85 87 88 89 91 93 95 98 100 102 100 96 91 86 81 76 72 67 62
47 48 52 56 54 56 56 61 61 64 66 67 72 77 78 82 83 82 80 79 80 82 84 86 87 89 92 95 97 99 101 100 99 97 92 89 85 82 78 73 66 62 55
56 55 54 58 61 62 63 67 69 71 72 74 77 79 79 78 78 79 80 83 85 86 89 92 94 97 99 101 101 100 100 97 94 91 87 84 81 78 74 69 62 57 50
58 61 64 65 65 66 67 67 70 72 75 76 76 76 77 78 81 84 86 89 91 94 97 99 100 100 100 99 97 94 91 88 87 86 83 81 79 76 70 62 54 46 38
63 63 64 65 67 68 70 72 72 73 73 74 76 79 82 85 88 90 93 95 97 98 98 98 98 96 92 90 89 89 88 86 85 84 81 77 72 64 55 47 39 32 27
63 65 66 67 67 67 67 69 71 74 77 80 83 85 88 92 95 96 96 96 96 95 94 91 89 87 86 86 86 85 84 84 82 77 68 59 52 45 38 30 25 23 22
59 60 62 65 68 70 73 75 77 80 82 85 87 90 91 92 93 94 92 90 87 85 84 83 84 83 82 81 82 81 77 71 64 55 45 38 31 27 22 19 19 19 20

GFSGL_500_spd_069.txt.gz
Wind_Speed
19 21 23 23 22 20 19 19 22 27 25 27 25 28 30 30 28 30 29 33 33 33 38 40 36 49 50 46 42 42 42 45 46 45 46 47 49 52 53 57 60 63 62
25 23 25 25 26 26 24 25 28 24 26 29 38 39 35 35 38 38 35 35 40 40 38 44 42 47 45 43 43 44 45 46 46 47 48 49 51 54 57 61 63 62 64
30 31 26 25 21 19 20 20 22 23 22 26 28 38 39 35 36 39 41 42 42 46 45 47 39 42 44 44 43 46 48 47 48 50 51 53 54 55 60 62 65 67 68
30 32 32 25 23 22 22 24 26 25 23 25 24 26 37 31 33 41 40 46 48 47 48 43 42 43 44 45 47 49 51 53 52 54 54 56 57 61 64 66 69 70 69
30 29 31 32 29 28 26 27 28 28 28 26 24 20 22 29 28 29 31 38 40 35 38 44 43 43 44 47 50 53 54 55 55 56 58 59 61 64 68 70 74 68 67
32 34 33 33 33 34 36 36 32 29 29 29 29 27 27 29 27 28 32 33 34 35 37 40 43 46 48 51 55 55 56 57 57 58 60 62 66 69 71 75 72 69 73
38 32 31 30 33 37 36 32 31 31 29 28 31 32 30 32 34 33 33 34 37 41 44 44 46 48 52 56 56 56 56 57 58 61 64 67 68 71 75 76 72 76 79
38 31 34 35 30 28 27 27 31 31 29 28 29 31 34 36 35 36 38 40 41 43 46 47 50 54 56 56 57 59 59 60 63 65 67 69 73 76 73 74 79 81 83
35 34 34 36 36 31 34 32 31 32 31 30 30 30 31 34 36 38 41 44 46 48 48 49 54 61 58 58 59 61 61 63 66 68 71 75 73 73 77 81 84 86 86
29 30 33 36 35 32 35 36 32 32 32 33 33 33 34 37 38 41 44 46 49 50 51 49 62 61 59 60 62 63 65 67 69 72 72 75 78 81 83 85 86 86 88
33 30 31 34 37 34 34 35 37 36 35 36 37 38 38 39 42 45 47 48 49 49 45 61 59 60 62 63 65 66 69 72 75 74 76 80 82 85 87 88 89 89 87
36 35 35 39 37 37 39 40 40 40 40 41 41 42 43 44 45 46 47 48 44 45 61 62 63 64 65 66 68 71 75 75 76 77 82 85 87 88 90 90 89 86 85
40 40 42 44 44 44 43 42 42 42 43 45 46 46 46 47 47 49 44 40 58 62 63 64 65 67 69 70 74 76 74 76 78 82 85 87 88 90 89 88 85 85 85
44 48 45 47 46 49 46 41 43 44 44 44 46 47 48 49 49 48 60 61 62 63 65 66 69 71 74 75 75 74 76 79 83 86 88 89 91 91 88 86 87 87 88
44 45 50 50 43 42 45 47 45 45 48 52 52 49 49 49 54 61 62 63 64 65 68 70 72 74 75 77 76 76 81 86 89 91 91 90 88 87 88 89 90 92 91
40 42 47 47 42 44 48 48 49 49 53 52 52 54 57 60 61 63 65 67 68 69 69 69 71 73 76 76 78 85 86 89 91 90 87 87 89 90 91 93 94 94 93
55 50 52 48 52 53 50 53 58 58 56 54 55 57 58 62 64 63 60 61 63 65 68 70 70 72 75 81 86 89 90 90 86 86 89 91 93 95 96 96 97 97 97
53 48 50 47 55 52 54 57 59 61 62 60 59 58 58 58 59 62 63 63 65 68 71 74 77 80 83 86 86 84 83 86 89 92 95 97 99 99 99 100 99 96 90
52 56 51 57 61 54 53 54 56 59 60 64 62 59 59 61 65 68 68 69 72 76 79 82 85 84 83 82 83 86 90 93 96 98 100 101 102 102 100 98 95 90 83
48 45 46 52 57 58 50 57 63 56 55 57 60 63 62 66 69 71 73 76 78 80 82 83 83 84 85 87 90 93 96 98 100 102 103 103 102 100 96 90 86 81 78
55 57 51 42 46 51 56 61 58 61 61 62 64 67 69 71 74 75 77 80 82 83 84 84 86 88 91 93 95 98 100 102 103 103 101 99 95 91 89 87 84 80 74
48 51 50 53 52 56 59 62 66 68 69 71 72 73 74 76 78 80 80 81 81 83 87 89 91 93 96 98 99 101 102 102 101 97 93 91 89 88 86 83 80 76 70
49 51 54 57 59 64 66 68 71 74 73 73 74 77 79 79 78 78 80 83 87 89 92 94 97 99 101 101 102 101 97 93 91 89 89 88 86 84 82 77 73 65 52
58 60 62 64 64 66 69 70 70 71 73 74 74 74 75 78 82 84 86 88 91 94 97 99 99 99 97 94 92 90 89 88 87 85 82 81 79 76 70 60 51 40 33
62 62 62 64 65 65 66 67 68 68 70 72 75 79 81 83 87 90 92 94 95 96 95 92 89 87 86 86 86 85 83 80 78 77 74 67 60 53 44 35 28 22 20
56 56 58 59 61 63 65 68 70 73 75 78 81 84 88 91 92 93 92 91 88 84 82 82 82 82 80 77 75 75 75 72 65 58 51 44 37 29 22 17 14 14 14

GFSGL_500_spd_072.txt.gz
Wind_Speed
18 18 19 20 20 19 17 17 16 17 18 19 17 22 24 24 28 32 30 32 34 34 36 38 40 42 43 45 44 42 49 49 46 46 44 48 49 50 50 52 53 54 57
21 19 19 24 24 21 23 24 25 23 24 23 21 21 23 27 34 34 33 35 36 35 38 37 39 46 47 41 46 48 48 45 46 44 47 49 52 53 53 54 56 58 61
25 24 22 22 25 24 21 24 22 23 22 24 24 25 23 24 27 36 44 42 38 39 43 48 47 47 51 46 46 50 47 45 47 46 51 53 54 55 56 58 60 62 64
30 28 27 27 27 27 27 27 23 22 24 27 29 29 30 28 29 36 39 42 39 48 52 51 45 49 44 31 39 42 44 45 46 49 54 55 57 59 60 62 63 65 67
34 31 30 32 29 31 28 29 29 30 30 31 32 32 33 32 29 28 34 32 33 35 38 45 48 41 52 49 46 50 49 50 53 55 57 59 61 63 63 64 65 67 69
37 36 36 32 31 33 33 33 34 34 35 37 36 33 33 31 31 31 32 34 35 34 35 36 38 39 40 46 48 52 52 54 56 59 61 62 63 64 64 65 66 69 73
43 41 40 37 37 35 34 33 33 34 34 33 31 31 32 32 32 34 35 35 37 39 39 40 42 43 46 48 50 53 55 58 58 61 64 65 66 66 68 69 70 74 74
47 44 43 42 39 38 37 37 35 34 32 32 33 32 31 30 32 33 34 36 37 38 40 42 45 47 48 51 53 53 59 64 61 66 69 68 69 69 71 73 75 75 75
50 48 47 45 42 41 39 34 38 37 35 34 35 35 34 34 35 36 37 39 40 41 43 45 48 50 53 55 55 54 61 64 72 73 72 71 71 73 75 76 77 78 79
49 52 52 44 43 41 39 35 39 38 38 38 39 39 39 39 40 40 41 44 45 47 48 50 52 54 56 56 57 61 63 63 72 74 74 74 75 76 78 78 79 81 84
48 46 44 43 44 42 39 34 33 36 39 41 42 43 44 45 46 45 46 47 49 50 53 53 55 56 57 58 65 63 64 75 78 77 75 76 79 80 80 81 82 85 89
42 45 47 46 47 46 42 42 45 38 42 45 48 46 45 47 48 49 51 51 51 52 53 56 57 61 59 61 67 70 76 81 79 77 78 81 82 82 83 83 86 89 90
47 48 50 48 49 49 51 53 52 51 52 49 46 45 41 45 46 47 49 50 50 52 54 60 57 66 64 63 71 79 82 79 79 80 82 84 87 87 86 86 91 92 89
51 54 54 56 55 56 53 53 51 51 57 49 43 44 45 48 49 51 52 52 53 54 53 68 62 63 69 76 76 79 80 81 83 85 84 83 83 84 88 91 92 87 86
47 52 61 51 52 63 54 55 56 63 51 46 47 48 47 49 50 55 53 53 57 55 58 62 70 75 80 80 80 79 82 86 84 83 84 85 85 87 88 87 87 89 90
45 45 45 46 46 47 50 51 47 56 49 48 48 50 52 52 57 56 57 59 59 64 68 70 74 77 77 76 77 79 80 81 83 85 87 88 88 86 86 88 90 92 94
45 50 48 45 50 54 58 59 54 55 53 60 55 53 54 60 64 62 62 62 65 67 69 69 69 67 68 71 75 79 82 85 87 87 85 86 87 89 92 95 98 101 103
56 51 49 51 48 61 67 56 57 57 59 56 60 60 60 61 60 62 64 68 63 61 63 65 69 73 77 80 82 84 86 88 89 89 89 92 95 97 100 103 106 107 105
57 55 54 57 63 60 56 58 59 50 48 48 47 52 58 62 63 64 63 63 66 68 69 73 76 78 81 83 86 88 88 89 90 93 97 100 102 104 106 107 107 105 101
50 51 45 42 40 41 42 41 41 45 49 49 53 57 61 62 63 66 67 68 71 73 75 78 80 83 86 86 87 87 89 93 96 99 102 106 107 107 107 105 101 96 91
50 52 44 41 45 48 44 52 47 47 48 54 57 60 64 67 69 70 72 74 78 80 80 82 85 86 85 85 89 93 95 98 102 105 107 107 107 104 101 98 94 90 86
46 46 47 48 49 51 53 55 58 60 60 62 64 68 70 72 74 77 79 80 80 81 84 83 83 86 89 93 95 98 100 103 105 105 103 100 98 96 92 89 84 81 77
53 52 52 54 55 54 57 59 62 63 64 66 71 73 75 77 79 79 80 81 81 80 83 87 89 92 95 97 100 102 103 101 98 95 93 92 89 85 82 79 76 71 66
48 50 52 55 59 62 63 64 66 68 69 70 70 72 73 73 73 74 76 78 81 84 87 91 94 96 98 98 96 94 91 89 87 86 84 81 78 75 71 65 59 51 44
56 58 58 60 61 64 66 65 64 64 64 65 66 69 71 73 76 78 81 85 89 90 92 93 92 90 87 84 83 82 81 80 76 74 73 71 65 58 50 43 36 30 25
54 55 55 56 58 59 60 61 62 64 66 69 71 74 77 79 82 85 88 91 91 87 83 79 78 76 76 75 74 71 69 68 67 64 59 51 43 37 30 25 20 16 12

GFSGL_500_spd_075.txt.gz
Wind_Speed
17 17 16 14 13 13 13 15 18 16 16 16 18 16 16 19 23 23 24 27 29 30 33 33 34 35 39 40 42 45 46 52 52 47 49 44 51 45 42 43 46 48 50
22 22 20 21 20 17 17 18 18 19 22 23 23 23 20 20 21 26 29 32 35 37 39 37 36 39 41 40 43 49 55 54 53 49 42 42 47 48 52 47 49 52 54
27 27 26 23 23 25 23 20 22 20 22 22 24 23 23 23 23 23 26 27 30 39 42 42 38 42 43 48 56 57 56 52 48 51 51 47 48 52 51 52 54 55 56
31 29 30 29 29 31 30 27 22 23 25 25 25 26 26 24 24 27 29 31 33 36 43 47 44 45 49 46 51 52 54 44 36 42 44 48 54 54 54 55 58 59 61
35 33 33 33 32 33 31 29 32 28 28 30 31 32 33 33 33 32 33 34 35 33 33 35 39 41 41 44 43 48 44 43 48 49 48 54 54 59 59 59 58 61 65
38 35 37 37 36 35 34 33 33 32 32 34 36 38 40 38 34 34 35 35 34 34 33 37 39 38 40 43 43 45 45 46 41 57 55 57 57 63 65 65 64 67 67
42 39 40 42 41 39 39 40 38 38 37 36 36 39 38 38 38 36 37 37 36 34 36 38 38 41 44 45 46 50 49 53 54 57 58 58 61 63 66 65 70 73 74
44 43 44 43 42 44 44 43 41 41 40 40 41 38 38 36 36 38 40 39 37 36 38 39 43 45 44 45 51 53 56 57 51 61 62 55 65 69 65 73 77 79 80
47 47 45 45 47 46 46 46 44 45 42 41 43 42 42 40 36 38 41 43 43 42 43 45 46 48 50 51 52 58 61 58 58 60 64 61 63 68 75 84 81 85 89
50 49 52 54 52 50 50 51 49 49 45 41 41 43 44 44 44 43 45 46 48 48 47 49 51 53 55 56 58 59 60 60 61 67 60 66 64 69 74 80 84 89 86
51 52 55 53 52 55 54 49 48 48 48 43 40 42 43 46 47 50 50 52 53 53 54 56 57 57 57 58 60 61 61 56 68 72 68 74 80 88 84 87 88 87 88
49 54 55 54 56 58 56 55 50 53 53 50 48 49 45 45 46 52 57 58 58 58 57 57 58 59 60 62 62 64 65 66 72 77 71 80 77 83 88 86 87 90 93
51 51 49 46 50 54 55 54 57 56 59 60 62 57 57 54 57 56 60 52 57 56 56 56 56 57 58 60 64 67 73 76 71 75 78 76 89 93 89 88 91 91 91
50 52 53 55 53 58 56 59 60 62 63 67 69 69 59 57 56 65 54 50 52 54 55 56 58 59 59 61 64 65 69 73 68 75 84 90 92 89 88 89 91 92 94
49 52 55 59 64 65 64 64 67 68 75 72 67 57 66 64 63 65 55 54 53 55 57 60 60 60 60 64 68 67 67 74 80 87 90 88 86 89 91 94 96 95 94
55 55 56 57 59 60 62 69 70 75 64 64 66 59 58 63 58 60 61 59 56 56 60 63 68 67 66 69 71 76 82 85 87 87 87 88 89 91 93 93 93 94 93
55 53 52 55 55 56 58 58 56 55 58 59 62 64 70 74 77 81 78 70 70 67 64 68 68 67 69 69 71 76 77 78 81 84 88 89 90 91 93 94 93 96 100
52 54 55 56 56 56 58 56 60 60 62 58 65 71 74 69 55 54 58 57 59 62 63 65 67 70 71 72 74 76 79 81 84 88 89 91 93 93 93 95 99 102 105
50 41 46 62 71 38 47 61 65 66 59 52 48 43 45 45 46 53 55 54 59 63 66 68 68 70 73 75 75 79 83 86 88 88 90 91 93 95 98 101 103 108 112
49 60 60 66 51 45 43 36 35 39 43 43 42 48 45 49 51 56 58 59 61 63 66 69 72 75 77 81 83 86 87 87 89 89 90 94 97 100 104 108 112 113 110
36 32 31 40 40 37 47 46 38 41 42 44 45 46 54 58 57 62 65 66 69 73 75 78 79 81 81 83 85 86 86 87 90 93 96 100 103 106 108 109 107 103 98
35 37 36 37 39 42 44 45 46 49 54 56 56 58 61 63 66 68 70 73 76 79 81 82 81 80 80 81 83 86 89 92 96 100 102 103 103 101 98 95 93 89 85
42 42 43 43 45 47 48 50 51 54 56 59 62 65 67 69 70 72 74 75 76 76 76 76 78 80 82 85 88 91 94 97 98 98 96 93 90 87 84 82 79 77 75
47 46 48 49 49 51 54 57 59 60 62 65 67 69 70 70 70 70 70 72 73 76 79 81 83 86 89 90 92 91 89 87 85 84 83 80 78 76 74 73 69 64 55
48 49 51 54 54 55 57 58 61 63 63 63 64 65 66 68 69 70 73 76 79 82 84 87 88 87 86 84 81 78 77 76 74 72 71 70 69 67 64 57 49 41 35
51 53 54 55 56 56 57 58 60 62 63 65 67 69 71 74 76 79 81 83 83 84 83 83 81 78 75 73 71 69 67 66 65 64 63 61 57 51 43 37 30 26 23

GFSGL_500_spd_078.txt.gz
Wind_Speed
15 15 15 14 12 12 12 12 14 15 15 15 14 14 14 15 16 17 18 21 21 22 24 26 27 28 32 31 31 32 35 36 42 43 45 49 52 56 52 50 47 57 49
22 19 19 19 17 16 16 17 17 16 17 18 21 22 23 24 22 19 19 21 24 28 30 31 31 32 35 34 37 40 41 43 44 48 54 54 58 51 51 50 48 56 49
26 25 24 23 21 22 22 22 22 22 20 21 21 21 22 26 26 23 23 24 25 27 28 28 29 35 42 45 40 42 44 47 49 53 55 55 55 56 52 44 44 48 51
30 30 29 26 26 26 28 28 26 25 24 21 25 25 26 27 26 25 24 25 27 30 33 34 35 35 33 43 48 44 44 47 50 51 51 49 42 38 43 45 49 53 56
34 33 30 30 30 31 32 31 30 29 28 29 28 29 30 32 32 32 33 33 35 37 37 35 35 37 37 44 49 50 48 47 48 47 47 47 47 48 53 47 51 55 54
38 35 34 35 35 34 34 34 33 33 33 32 32 31 31 35 36 38 40 41 41 41 40 39 37 39 36 35 37 41 45 46 48 50 50 50 53 48 50 64 60 56 60
38 38 38 38 38 38 38 38 38 36 37 38 38 37 36 36 36 37 39 44 45 43 42 40 40 41 41 42 42 44 46 46 50 56 51 50 52 60 59 44 58 60 70
43 42 43 42 40 41 41 41 41 38 38 39 39 41 39 37 39 39 41 42 46 45 42 40 44 43 44 45 44 46 51 46 56 53 57 52 52 57 55 67 62 62 64
41 43 47 48 47 44 48 44 43 45 44 42 42 42 42 41 42 43 42 43 45 47 45 43 44 47 48 49 49 51 52 55 57 58 61 62 63 64 63 63 74 74 68
40 43 42 44 51 54 50 49 50 48 51 47 44 46 45 49 42 43 46 46 47 48 50 50 49 49 51 53 54 56 57 59 60 61 62 64 64 66 68 70 74 83 74
48 49 50 50 49 52 54 56 57 58 54 50 56 52 49 49 46 45 49 49 50 51 51 53 49 51 56 60 62 62 61 61 62 64 66 67 68 69 72 76 76 72 78
50 49 51 54 53 51 54 56 57 53 59 58 56 56 52 48 49 51 57 59 55 57 59 53 57 55 58 63 67 68 67 67 67 66 65 65 72 70 73 71 81 82 84
52 54 55 56 56 56 54 57 59 60 60 61 63 62 62 57 55 58 61 63 64 68 70 56 57 63 62 60 61 63 62 61 63 62 63 67 68 72 76 73 75 79 85
52 52 52 58 59 61 62 60 57 58 54 62 62 63 63 67 64 65 65 66 72 75 68 58 59 58 63 60 59 59 62 64 65 66 71 71 75 75 77 79 82 88 93
55 58 57 57 61 63 66 64 61 56 59 59 62 64 65 66 65 69 76 59 74 78 63 61 63 60 65 65 60 65 67 69 71 71 73 74 76 77 80 85 87 88 90
51 58 56 58 60 62 63 61 64 65 63 61 57 66 59 58 59 60 67 62 55 60 68 70 71 74 76 76 71 71 72 70 67 68 71 75 77 78 81 83 85 87 90
49 54 52 53 55 61 62 63 62 63 65 64 63 64 68 70 61 58 64 64 65 65 68 72 74 68 65 63 63 59 59 62 64 66 70 73 77 80 84 87 90 93 95
51 51 61 40 41 44 51 46 55 37 46 53 47 54 45 59 61 68 68 68 70 66 64 65 58 54 59 63 65 65 68 70 70 74 77 81 84 88 90 92 94 96 95
40 49 53 56 46 45 49 47 65 64 67 61 64 71 61 59 61 57 54 58 56 55 53 53 55 58 59 66 69 70 72 77 81 84 87 89 91 92 94 95 94 95 97
32 30 32 32 30 38 47 40 42 47 42 43 42 45 44 44 47 48 46 46 51 55 56 60 63 65 67 70 72 77 81 84 88 91 94 94 94 93 93 94 97 101 104
31 31 32 30 32 31 31 33 33 36 36 36 39 45 47 47 49 50 54 55 57 59 62 65 68 70 73 74 76 80 83 86 87 87 87 88 90 93 97 100 103 103 102
34 34 36 36 34 36 37 38 40 41 39 42 45 46 47 51 53 55 58 60 63 65 68 71 73 75 78 79 80 81 80 82 84 87 90 93 95 97 97 95 93 90 86
39 39 41 41 43 43 42 42 43 45 46 47 50 52 55 56 58 60 63 66 67 69 71 71 71 72 74 75 77 80 83 85 88 89 90 89 88 84 82 80 78 76 75
39 40 41 43 44 44 44 44 45 46 46 49 51 53 55 57 57 59 61 62 64 67 68 70 72 75 77 80 83 84 85 85 84 83 82 78 74 72 71 70 67 66 64
43 43 44 44 45 46 47 48 48 49 50 52 54 56 58 59 60 62 64 66 68 70 73 76 78 79 79 80 80 79 77 74 71 69 68 67 65 63 61 59 57 53 49
44 44 45 45 46 47 49 50 52 53 55 57 58 59 62 64 66 69 71 73 75 76 77 77 76 75 73 71 69 67 64 63 61 60 60 58 56 54 52 49 44 38 34

GFSGL_500_spd_081.txt.gz
Wind_Speed
19 17 15 14 12 11 12 11 11 10 12 12 12 11 11 13 13 12 14 17 18 21 23 24 25 28 32 33 32 35 37 37 39 33 38 39 38 37 38 44 49 53 57
23 24 22 20 17 16 16 16 15 14 13 14 15 16 19 20 20 20 22 20 18 17 21 25 25 28 32 33 35 37 38 39 40 39 52 42 44 44 46 51 53 51 50
26 24 27 24 22 22 21 20 19 18 18 20 20 20 22 22 22 24 25 25 23 24 26 27 26 30 31 33 36 36 40 43 47 49 49 45 43 45 47 47 44 41 39
31 28 25 26 26 28 27 25 24 24 23 23 23 22 23 26 26 26 27 29 29 28 30 32 33 35 35 37 39 39 36 37 44 49 49 49 47 48 46 46 50 48 46
37 34 30 30 30 31 30 30 29 28 29 29 28 26 24 25 25 29 33 35 36 35 36 36 37 38 39 41 42 42 44 45 46 49 49 54 54 51 53 49 53 48 42
38 38 37 35 34 32 32 32 34 31 30 33 31 30 32 29 28 31 32 35 41 44 43 44 43 43 42 43 43 44 47 45 45 43 45 48 50 52 53 55 50 50 55
34 38 41 42 40 37 37 38 36 36 36 33 33 35 34 35 33 32 35 38 38 39 42 42 41 42 45 47 46 47 47 46 46 47 49 51 50 53 49 55 53 58 54
38 40 41 42 42 42 42 41 40 40 40 41 40 39 38 35 35 36 38 39 40 41 43 43 44 42 42 44 47 48 47 47 48 48 47 51 53 56 57 58 57 60 59
36 35 34 37 42 44 44 44 42 47 48 44 46 47 47 41 39 39 41 44 45 44 45 42 44 44 43 44 46 48 51 52 52 52 52 53 58 56 64 65 61 59 65
43 44 44 43 43 45 44 47 48 49 48 51 49 50 48 47 48 49 48 49 51 52 49 50 46 42 43 46 49 51 52 53 55 57 58 60 63 65 66 66 63 65 68
44 45 48 50 48 48 47 48 50 52 52 55 55 55 55 53 54 53 52 59 59 55 53 53 53 52 50 47 50 54 57 59 57 60 62 66 69 69 67 71 69 66 67
46 49 51 53 54 53 50 51 54 55 54 57 58 58 62 62 58 58 58 59 58 61 56 58 57 57 59 61 60 64 71 63 61 61 64 63 65 67 67 63 65 66 67
45 50 55 57 58 59 60 60 57 57 57 59 61 61 60 56 59 59 61 65 59 58 66 67 63 57 60 67 68 77 76 62 64 63 61 62 68 67 66 68 71 74 77
45 46 47 55 63 63 62 65 67 65 62 64 60 58 60 63 61 62 60 60 65 67 71 68 74 74 65 67 80 67 53 61 63 65 66 71 70 67 69 74 77 80 82
50 52 52 52 52 59 66 66 65 67 70 68 65 67 67 69 63 57 59 59 66 64 72 73 71 72 75 66 70 81 60 59 68 74 67 69 73 75 75 79 72 69 69
56 59 59 58 59 57 60 65 69 68 65 63 63 62 69 60 70 62 64 60 72 73 71 61 70 86 57 53 58 60 67 78 74 68 74 79 74 69 68 67 70 72 76
61 62 61 62 62 62 58 59 66 63 57 61 65 64 67 66 73 76 71 68 64 64 68 55 60 62 65 70 59 66 63 59 66 68 64 64 66 69 72 75 78 84 87
46 34 39 41 44 47 49 55 54 54 64 50 59 64 66 54 69 58 61 71 63 58 54 57 56 60 60 58 63 60 60 55 56 60 65 69 72 75 78 81 84 88 91
39 41 37 34 32 29 34 35 44 46 53 48 39 42 54 58 42 42 42 58 59 56 59 62 66 61 62 59 59 56 58 60 64 66 69 74 77 80 83 86 90 92 94
39 40 43 39 31 29 28 27 27 27 33 40 40 43 47 45 42 38 39 49 50 50 50 50 51 55 57 58 62 65 67 69 71 75 77 80 83 85 87 88 88 90 92
41 40 42 40 35 32 33 33 33 33 33 34 35 36 36 38 42 42 42 44 47 50 52 53 56 59 60 64 68 71 74 76 77 79 81 82 83 84 86 88 90 93 96
42 39 40 40 39 39 39 39 38 36 37 38 41 42 44 46 45 47 49 50 52 55 58 61 63 65 67 70 72 75 77 79 81 80 81 82 84 87 89 90 91 92 90
41 44 43 41 42 43 43 42 41 40 40 39 41 43 45 45 47 49 50 52 53 56 59 62 64 66 69 70 72 74 75 76 79 81 83 84 85 85 84 83 80 78 75
45 46 44 42 43 44 44 44 43 43 43 42 41 42 45 47 50 51 53 54 57 58 60 61 63 65 68 69 72 75 76 78 79 79 79 77 73 71 69 68 66 64 62
44 44 44 43 44 45 45 45 45 45 45 45 45 45 46 49 51 53 55 58 60 62 64 66 68 70 72 72 73 73 71 70 68 68 66 62 61 60 58 57 55 54 52
43 44 44 44 44 44 45 46 47 48 49 51 53 54 55 57 58 59 61 62 63 64 64 64 64 63 63 63 63 62 61 60 59 57 55 53 52 51 50 49 47 46 45

GFSGL_500_spd_084.txt.gz
Wind_Speed
25 22 19 18 16 15 14 13 11 9 7 9 12 13 14 15 15 16 14 14 15 17 21 23 25 29 31 33 34 36 36 37 40 34 37 36 41 43 40 42 44 45 44
30 28 26 24 21 20 19 19 17 16 14 13 11 13 17 19 20 21 22 22 22 20 22 24 25 28 29 31 35 36 36 38 42 41 39 41 45 46 47 45 47 48 48
31 31 30 29 26 26 24 23 23 22 21 19 18 18 19 20 23 24 24 24 25 26 27 27 29 31 31 35 37 38 39 41 43 45 46 45 46 48 51 51 50 49 48
34 34 33 31 29 31 31 29 28 27 26 25 25 24 23 23 23 24 26 26 27 28 30 30 31 31 31 33 35 36 38 40 42 45 48 46 49 49 48 47 49 51 50
33 35 33 36 34 33 33 33 33 33 31 32 31 30 30 28 26 27 28 29 29 31 34 34 36 37 38 39 41 40 43 44 45 47 50 46 50 50 49 49 48 52 55
28 33 35 34 38 40 39 39 38 36 35 36 34 33 35 34 32 33 34 34 35 36 34 33 35 40 42 45 47 49 51 49 48 50 48 48 49 49 47 48 50 51 53
39 40 39 37 40 38 39 42 41 39 39 39 39 38 34 36 36 36 39 42 42 40 38 39 38 37 40 41 45 48 47 48 50 49 49 46 47 46 46 46 49 51 53
42 40 40 40 41 41 42 43 42 42 43 43 42 42 43 40 39 41 42 46 47 45 43 41 43 43 43 42 43 43 46 48 49 48 47 47 48 48 50 51 52 53 56
32 34 39 36 37 41 46 47 47 48 48 47 47 45 43 43 47 47 47 50 50 47 46 45 46 49 50 49 50 47 45 47 49 50 52 52 52 53 54 57 58 58 62
42 40 40 39 38 39 45 46 46 48 50 52 52 53 53 55 51 52 51 52 52 54 51 52 53 55 54 58 58 56 54 50 52 52 49 50 52 55 59 62 59 62 62
46 45 45 44 46 48 47 50 55 55 55 56 56 55 56 56 56 57 58 58 57 60 56 56 56 56 57 62 67 62 59 58 56 55 56 63 66 67 75 66 66 71 67
46 47 47 48 49 51 51 53 54 56 58 60 61 61 61 60 58 59 60 63 63 62 63 65 63 61 64 63 64 66 59 60 61 64 64 64 68 79 72 71 68 72 71
38 40 41 43 45 49 52 56 59 61 62 63 65 68 67 66 67 63 61 63 62 60 60 60 64 65 64 69 72 70 67 69 70 71 75 78 82 78 88 82 82 85 74
39 41 43 44 47 49 52 55 58 62 65 68 71 73 72 73 71 69 67 63 62 61 62 65 67 66 64 66 68 73 74 72 80 85 78 83 83 87 81 76 67 70 72
41 43 45 48 50 52 55 58 60 61 64 66 69 69 69 73 73 64 71 66 76 70 72 64 72 66 64 67 74 73 88 78 87 81 90 85 66 66 64 69 75 71 71
45 46 48 50 52 54 56 58 62 65 68 72 71 69 68 68 67 70 68 74 74 73 75 72 58 67 64 69 69 68 78 72 73 68 72 77 75 71 64 69 70 72 71
51 52 52 54 54 54 54 54 57 57 60 70 72 69 65 66 63 62 62 75 73 74 68 66 74 76 78 77 78 69 70 70 60 54 55 61 67 72 71 69 69 69 70
56 56 55 55 54 53 51 48 44 45 45 46 48 56 61 55 52 53 57 76 66 73 75 70 73 75 80 79 64 58 62 62 65 67 63 63 65 68 68 69 71 72 75
56 56 57 55 52 51 49 47 46 45 41 40 39 40 42 51 52 55 50 51 53 53 45 60 52 44 42 40 42 48 52 53 56 56 57 59 62 66 70 74 78 81 86
58 57 55 53 50 48 47 45 46 46 45 42 41 41 40 39 39 38 38 42 42 44 41 39 40 46 52 51 50 51 53 55 57 61 63 68 70 72 74 76 79 80 82
54 50 49 48 46 44 43 43 43 42 43 43 42 41 42 44 44 44 43 44 45 45 47 47 49 50 51 53 56 58 60 61 62 63 65 68 71 73 76 79 80 82 86
49 47 45 45 45 45 45 44 45 46 46 47 47 45 44 45 46 47 49 48 49 50 50 51 54 55 55 57 59 61 63 65 65 68 71 74 75 77 80 82 85 88 90
46 45 45 43 43 47 47 45 44 45 44 44 44 44 44 44 46 47 48 49 50 51 53 54 56 58 59 60 62 63 65 66 68 71 73 76 79 81 81 83 84 83 83
46 46 47 46 46 45 46 45 46 46 47 46 46 48 46 47 48 48 49 49 51 52 54 55 56 58 60 61 63 65 67 69 71 73 75 75 76 75 76 75 73 72 69
47 47 46 44 44 44 45 46 46 47 48 49 49 48 48 49 50 51 53 54 56 58 59 60 62 64 65 66 68 69 68 68 69 69 68 66 65 65 65 63 61 58 56
43 43 44 45 45 45 45 45 46 47 49 50 51 52 53 55 56 58 59 60 61 63 65 64 65 65 65 63 62 60 59 60 59 59 58 57 56 55 53 51 50 49 48

GFSGL_500_spd_087.txt.gz
Wind_Speed
26 26 23 21 19 17 15 15 14 14 14 12 13 14 14 15 15 16 17 17 18 17 16 22 31 34 37 38 38 37 37 38 39 35 38 39 41 42 42 44 44 45 48
27 29 29 27 25 23 22 20 19 18 17 17 17 16 18 19 20 20 21 22 23 23 23 20 24 27 26 29 32 33 34 35 38 38 37 39 42 45 47 49 49 51 51
28 27 28 31 31 31 29 28 26 24 22 21 21 22 22 22 22 23 25 27 28 30 30 29 30 30 28 31 33 35 37 39 41 42 40 41 43 46 48 49 49 52 52
28 27 28 32 33 35 36 35 33 31 29 28 27 28 28 28 26 26 27 28 31 32 33 32 34 34 32 35 38 37 39 41 41 43 43 40 41 42 44 44 48 49 49
28 30 34 36 37 37 35 37 38 38 36 34 34 32 32 33 31 31 32 33 33 33 34 34 34 35 35 37 41 38 42 45 46 47 51 52 50 51 48 44 49 48 49
31 30 33 31 34 43 36 36 36 36 38 39 37 37 38 37 37 36 37 38 40 40 38 38 37 39 38 39 40 41 45 47 49 51 52 52 50 51 51 48 51 50 50
30 30 31 35 35 32 34 39 42 41 41 42 41 42 41 40 40 41 41 43 44 45 45 44 44 43 43 44 44 45 46 46 44 41 43 46 48 50 52 51 50 52 52
36 36 37 40 41 43 43 44 43 47 48 47 46 44 45 43 43 45 47 47 49 49 49 49 50 49 47 47 48 49 50 51 51 51 51 49 49 51 53 54 54 54 54
44 42 42 40 39 40 41 43 43 47 49 51 51 51 51 50 52 53 54 54 54 55 53 54 54 53 51 51 52 54 53 55 56 55 56 58 57 54 52 52 56 56 57
40 42 39 38 38 40 42 43 45 45 45 50 52 53 55 56 57 57 58 59 60 57 57 55 56 56 54 57 60 60 61 60 59 63 62 62 60 61 60 57 65 67 66
43 42 42 40 40 43 46 49 50 51 50 51 52 55 59 60 61 60 62 64 64 62 54 66 63 60 61 60 64 68 68 68 65 65 65 65 64 67 68 65 66 68 71
43 45 47 47 49 48 48 49 50 51 52 54 57 59 60 64 66 67 67 67 69 69 68 66 62 67 69 62 63 67 68 69 70 67 70 73 70 71 68 72 75 76 74
44 45 44 43 40 41 42 43 45 47 49 52 54 57 60 62 65 66 67 68 69 72 74 76 75 67 67 65 70 70 70 68 76 69 80 74 80 73 77 77 83 78 87
44 43 42 42 42 44 45 46 48 50 51 53 55 58 61 64 67 70 70 69 70 72 75 75 75 80 72 76 64 70 73 70 77 73 79 78 78 82 76 83 92 88 95
41 42 43 43 45 47 48 49 50 52 54 56 60 62 64 64 66 68 71 74 74 71 73 70 70 79 72 75 75 81 87 80 70 79 79 84 76 67 68 76 76 70 70
42 44 46 47 48 50 51 53 54 56 57 58 61 64 66 67 67 70 76 80 82 79 73 68 69 72 68 71 74 79 83 74 75 76 77 72 75 77 78 77 62 61 61
49 50 51 51 52 54 55 56 58 59 58 58 59 59 58 58 58 58 58 58 61 60 64 64 67 66 61 70 79 70 79 70 69 76 76 79 77 73 72 64 54 58 62
51 52 54 55 56 58 60 61 61 60 61 61 60 57 57 56 52 50 49 50 47 49 49 53 56 58 67 63 57 60 64 68 78 63 52 53 51 48 49 52 52 54 58
56 56 57 58 59 60 61 61 62 63 64 63 60 58 59 59 53 50 51 50 47 42 43 47 52 52 47 44 44 41 40 41 42 43 44 49 52 54 56 58 60 63 66
61 61 62 62 63 63 64 65 66 64 61 58 56 55 53 54 51 49 50 51 48 46 45 44 44 45 46 45 45 46 48 49 50 51 54 55 56 58 59 60 63 66 68
63 64 65 65 65 64 62 60 58 57 55 52 52 53 52 52 52 52 51 52 51 51 50 49 49 49 51 51 52 53 54 54 54 56 57 59 62 62 64 66 69 71 72
56 57 57 56 56 54 53 51 49 48 49 50 51 51 51 52 52 53 50 49 48 49 50 51 51 51 53 54 54 56 57 59 60 62 64 66 67 68 69 70 72 74 76
48 48 49 50 49 49 49 48 48 50 51 50 48 48 47 48 50 51 50 50 51 52 53 54 55 56 56 58 60 61 62 63 64 65 67 69 70 72 73 74 75 77 78
51 50 49 48 50 50 52 51 50 49 49 49 49 49 50 50 50 51 51 51 53 54 55 56 57 59 59 59 61 63 65 67 68 70 72 73 74 74 74 74 72 70 67
48 49 50 50 50 50 49 49 48 47 47 47 48 49 50 50 50 51 52 54 55 56 57 58 59 61 62 64 65 66 68 69 69 68 68 66 65 63 62 61 60 60 60
50 50 50 50 49 49 49 49 49 49 49 49 50 51 52 53 55 56 57 58 59 60 61 63 64 64 64 64 64 63 61 59 58 56 56 57 58 58 58 58 56 54 52

GFSGL_500_spd_090.txt.gz
Wind_Speed
26 25 25 24 22 20 18 15 14 14 13 12 14 15 15 15 14 15 16 16 16 17 18 20 21 22 31 36 36 39 41 39 42 37 37 36 38 39 41 44 45 45 44
27 26 27 26 25 24 23 22 20 18 17 16 14 14 16 18 19 20 20 20 20 21 23 23 24 23 20 25 30 32 32 33 37 36 36 36 38 38 41 42 43 45 45
26 28 27 26 27 27 27 27 26 25 23 22 21 21 21 20 19 19 21 24 25 27 28 29 31 31 29 31 31 31 33 35 36 39 37 38 39 38 40 42 41 45 47
28 26 27 29 28 28 30 30 31 31 29 30 30 29 28 27 26 26 26 26 27 28 31 33 34 34 33 35 37 37 39 41 42 45 44 41 43 38 41 40 43 45 48
31 29 32 33 33 32 32 33 33 32 32 32 34 34 34 33 32 32 33 34 34 34 34 33 34 34 35 37 40 38 42 44 46 48 51 49 48 47 48 47 51 50 54
28 27 26 25 28 29 30 33 32 40 38 37 35 37 37 37 37 37 38 40 41 42 41 40 40 41 39 39 41 41 43 45 46 48 47 48 44 42 43 44 46 50 50
34 34 29 27 27 28 28 29 32 27 26 35 39 39 40 39 41 41 43 44 45 46 47 47 47 46 45 46 46 47 48 50 52 51 52 51 51 49 49 48 46 44 47
38 36 32 30 31 31 31 32 35 35 38 39 39 43 46 48 48 47 46 47 48 49 49 50 51 52 52 52 52 54 53 54 55 57 58 56 53 51 53 55 54 52 51
43 42 39 38 36 35 37 38 38 37 37 39 43 42 44 52 53 53 52 52 54 55 56 57 57 59 60 61 58 59 59 58 57 59 60 60 59 60 61 60 58 60 62
45 48 47 45 46 46 41 39 40 41 42 43 45 48 49 49 50 55 58 58 60 60 61 63 65 66 59 62 64 66 68 70 67 63 64 63 61 65 67 66 65 71 67
52 48 49 47 44 39 38 38 43 47 45 47 50 52 53 55 54 54 56 56 58 60 62 63 64 65 63 63 63 66 62 72 70 69 73 68 66 71 70 70 76 75 70
30 33 35 37 38 39 40 42 43 44 47 49 49 49 49 51 52 55 54 54 55 57 62 66 68 70 71 71 70 69 68 63 68 71 73 79 76 77 83 69 79 81 71
32 35 38 38 38 37 40 38 38 40 41 41 42 44 47 49 51 54 56 57 59 59 60 63 65 68 70 70 69 70 72 72 75 78 80 81 80 81 74 67 75 79 77
35 38 39 38 39 39 39 39 40 41 42 44 46 47 49 52 54 55 57 58 59 60 59 61 63 66 69 72 72 74 72 77 73 71 72 83 76 77 73 80 79 79 79
32 34 35 35 38 40 41 42 43 44 46 48 49 50 52 53 54 56 57 59 59 61 63 64 65 66 69 73 75 77 75 74 70 77 71 76 88 85 82 78 79 78 81
34 36 38 39 41 43 45 46 48 50 52 53 54 55 56 57 57 58 59 60 61 62 64 64 64 65 67 67 66 69 72 77 72 76 71 70 69 77 77 77 75 74 74
39 42 44 46 46 48 49 51 53 54 56 57 58 59 60 61 62 62 63 63 64 65 65 64 62 62 62 59 54 53 58 63 67 60 60 67 67 64 64 69 69 66 62
41 43 45 47 49 52 53 55 56 57 58 59 61 62 63 64 65 65 66 67 67 65 63 62 63 62 59 56 52 52 53 55 54 51 51 53 52 51 48 47 47 47 48
50 52 53 55 57 59 60 60 61 62 63 64 65 66 66 67 68 68 68 66 64 63 62 61 59 59 57 55 53 50 48 47 46 45 45 46 48 49 50 52 55 55 55
53 55 56 57 58 59 60 62 64 65 66 67 67 67 68 67 66 65 64 61 60 60 60 60 59 59 58 56 53 52 51 50 50 50 49 51 52 53 55 56 56 58 60
56 57 58 59 59 60 61 61 62 63 62 62 61 61 60 59 57 56 57 57 57 57 58 59 59 59 59 57 53 52 52 51 52 52 53 54 55 56 58 59 61 63 64
58 59 59 59 58 57 56 55 53 53 52 53 52 51 52 53 54 56 56 56 55 54 53 52 53 54 54 54 53 54 56 56 57 57 59 59 60 61 62 63 65 67 69
51 52 52 53 53 54 54 54 54 54 52 50 50 51 52 54 55 57 56 54 54 54 55 56 55 55 56 56 57 58 59 59 60 62 62 63 64 65 67 68 69 70 71
55 53 52 52 53 54 54 55 54 54 54 54 55 55 54 54 54 55 54 54 54 54 55 56 57 57 58 58 59 60 61 62 63 64 65 66 66 67 67 66 65 64 62
59 56 55 55 54 53 52 52 52 53 54 55 55 55 55 55 55 55 55 55 56 56 57 59 60 61 61 62 63 63 64 64 65 65 64 62 60 58 57 55 54 55 55
56 56 57 57 56 56 55 55 55 55 56 56 56 56 56 57 57 58 59 59 60 61 62 62 63 63 63 63 62 61 60 58 56 55 53 52 52 52 52 52 53 53 52

GFSGL_500_spd_093.txt.gz
Wind_Speed
32 32 31 27 23 20 17 14 12 13 14 15 16 16 17 15 14 14 16 17 17 18 18 20 23 24 22 22 25 28 37 34 34 30 39 38 38 38 36 37 38 38 38
33 32 30 29 24 22 20 18 17 14 13 13 14 14 16 17 17 17 18 20 20 21 21 20 22 24 24 26 25 24 25 30 35 32 30 33 35 37 37 38 37 38 41
34 31 29 28 26 25 24 22 21 19 18 18 18 18 17 16 16 17 19 20 21 23 24 24 27 28 27 28 29 29 30 33 36 37 30 33 34 34 37 38 38 41 42
32 30 29 28 28 28 27 27 28 27 25 24 24 23 23 22 22 23 23 24 24 25 26 26 27 28 29 31 34 34 36 39 40 42 39 35 39 35 41 38 42 43 44
35 33 33 34 34 33 31 31 30 29 29 29 29 31 30 29 29 29 30 30 31 32 33 33 33 33 33 34 36 35 38 39 40 41 43 42 41 41 42 42 45 44 47
37 33 33 34 36 35 35 36 34 30 20 23 23 31 35 34 34 35 35 36 36 37 37 38 38 40 40 41 42 42 44 46 46 46 47 48 46 46 46 48 49 49 47
37 37 33 30 23 25 25 25 22 24 24 26 26 25 25 33 34 35 36 38 40 41 42 43 43 43 45 46 47 48 49 50 52 52 52 52 54 54 53 53 53 53 51
44 50 30 23 25 25 21 21 23 25 27 28 31 32 33 35 35 37 40 43 45 47 47 48 48 48 49 50 52 53 55 56 58 60 62 61 62 60 59 59 58 57 57
50 39 35 33 34 31 28 28 29 30 32 34 32 32 33 35 37 38 41 43 46 53 55 55 54 52 56 53 55 60 57 58 59 59 64 68 69 70 69 71 73 72 68
59 48 31 39 40 37 36 35 35 37 39 42 41 38 38 39 40 42 44 46 49 51 54 56 58 62 60 60 61 63 67 67 66 66 64 64 68 71 71 76 74 75 73
62 45 43 46 43 41 43 45 44 45 46 45 44 43 45 45 45 46 46 47 50 52 55 58 60 61 60 60 61 62 63 66 67 70 70 71 69 74 70 66 69 76 76
30 39 51 55 51 48 49 50 49 46 46 45 44 47 47 47 46 44 44 44 45 46 48 50 55 57 58 59 60 61 61 63 64 67 68 72 69 72 73 72 71 78 79
24 23 27 30 28 29 33 35 36 40 40 42 45 45 45 44 44 44 44 45 47 49 51 52 53 56 58 59 60 61 61 63 66 68 71 73 76 77 78 78 78 77 82
30 31 28 30 29 32 35 38 38 39 41 42 42 42 44 44 46 48 49 50 52 54 55 57 58 59 60 62 64 64 65 66 66 67 70 72 74 77 83 86 87 87 88
27 26 26 29 30 34 38 38 39 39 41 43 45 46 47 49 51 53 55 57 57 58 59 60 60 60 61 62 62 63 65 66 67 68 69 71 73 73 75 82 86 82 81
33 30 29 28 30 33 35 37 40 41 44 45 47 49 51 52 54 56 57 59 60 59 60 60 61 62 62 63 63 64 64 63 63 64 64 64 64 64 64 67 68 72 71
31 33 33 33 35 38 40 42 43 44 46 47 49 51 53 55 55 57 59 60 60 61 62 63 65 66 66 67 66 65 65 65 64 63 62 62 61 59 60 60 61 60 58
33 34 36 37 38 40 42 44 46 48 50 52 53 55 56 58 60 61 62 63 64 65 66 67 68 69 69 68 67 65 64 63 62 60 60 59 58 57 56 55 54 53 52
39 40 41 42 44 46 47 49 51 53 54 56 57 58 58 59 60 62 63 63 65 66 67 68 68 67 66 65 62 61 61 60 60 60 60 59 60 58 57 57 57 57 57
46 48 49 50 51 52 54 55 56 57 57 57 58 60 61 62 63 63 62 64 65 64 63 60 60 60 60 59 58 57 56 55 54 55 56 57 57 56 55 55 55 55 56
51 51 52 53 53 54 55 57 58 60 60 61 61 60 59 58 56 55 56 57 57 58 58 56 54 55 57 56 55 54 54 53 54 54 55 55 55 56 56 57 58 59 60
53 54 55 55 55 56 57 57 57 57 57 57 56 55 55 55 55 55 53 51 52 53 53 53 54 54 56 56 54 54 55 56 57 56 58 58 59 59 60 60 62 63 64
53 53 54 54 55 55 55 56 55 56 54 54 54 54 55 55 55 54 55 55 56 55 54 56 55 56 56 56 56 56 56 57 58 58 59 60 61 62 63 64 65 65 65
55 55 56 56 56 57 58 58 57 56 56 55 54 54 53 53 53 54 54 55 56 56 57 57 58 58 59 59 59 60 61 62 62 63 63 64 65 65 65 64 61 59 57
52 52 53 54 54 55 55 54 54 54 54 55 55 56 56 56 55 55 56 56 56 57 58 58 59 60 60 61 63 63 64 64 65 65 64 63 61 58 56 53 51 50 49
57 57 56 56 56 56 56 56 56 56 56 57 57 57 58 58 58 58 59 59 60 60 61 62 63 64 65 65 64 63 63 61 59 57 54 52 49 48 48 48 48 49 49

GFSGL_500_spd_096.txt.gz
Wind_Speed
41 37 31 30 30 28 27 18 16 15 15 14 12 12 11 11 13 16 14 14 16 18 18 19 22 24 23 24 26 25 25 26 28 31 37 33 32 35 34 35 35 36 34
45 38 31 30 31 28 30 22 19 16 14 13 13 13 13 15 13 13 14 15 17 18 19 18 21 21 21 23 24 26 28 29 30 22 22 28 31 31 30 32 31 33 35
48 39 32 31 30 28 29 27 23 21 20 19 18 18 16 15 14 15 16 17 18 20 21 21 24 24 24 26 27 29 30 32 33 31 25 30 32 34 35 36 36 39 40
47 41 33 31 31 30 31 31 29 26 25 25 24 23 22 21 21 22 21 21 20 21 21 21 23 23 24 26 28 28 29 30 32 34 30 29 34 33 39 39 41 43 44
48 40 33 33 35 34 34 34 34 33 31 30 29 28 27 28 28 28 27 26 26 26 27 28 28 29 29 31 33 32 34 34 35 37 39 36 36 38 40 42 44 44 45
44 38 35 38 38 37 38 39 39 37 34 34 34 29 31 27 30 32 32 31 30 30 31 32 34 35 36 37 38 37 39 41 42 42 43 44 42 45 47 49 49 47 48
44 44 42 42 41 41 42 43 44 41 40 38 29 27 27 23 23 26 32 34 33 34 34 35 37 39 40 41 42 42 42 44 46 46 47 47 50 52 53 55 56 56 57
45 48 44 43 40 38 40 37 41 41 34 27 29 29 28 28 29 30 31 33 34 36 39 40 41 40 42 43 44 46 49 50 50 52 55 53 61 60 58 62 59 55 56
46 50 44 43 46 50 45 37 28 31 29 30 30 29 29 29 30 31 33 35 37 39 40 42 44 47 49 51 51 53 55 57 57 59 60 62 61 64 69 68 66 61 65
48 51 49 48 44 45 39 35 30 34 35 34 33 33 33 35 36 37 38 39 41 44 44 46 48 50 50 49 49 50 52 54 56 57 59 62 64 64 64 65 66 61 71
59 58 56 53 54 61 57 42 37 39 38 38 39 39 40 41 43 45 43 45 47 48 49 51 52 54 56 56 54 55 55 55 56 57 59 60 62 63 65 67 67 69 70
55 60 61 58 63 57 46 41 43 43 44 46 45 43 45 47 48 47 47 48 51 52 52 54 56 54 54 56 56 55 56 57 58 60 62 63 65 66 69 70 73 72 74
27 28 33 37 46 49 50 51 48 50 49 49 50 48 45 43 44 46 46 49 51 52 52 51 53 53 54 55 56 59 59 61 62 62 64 66 67 68 70 71 72 74 76
20 20 20 20 24 29 29 29 32 34 35 35 35 37 39 43 45 46 48 50 52 54 54 54 55 57 58 60 62 63 64 66 67 68 69 69 70 71 72 73 74 74 74
23 24 25 26 28 29 30 30 31 34 32 34 37 40 44 46 47 48 50 53 54 55 57 58 60 61 63 64 66 67 68 70 71 72 73 73 74 74 74 74 74 73 73
28 29 27 27 27 28 28 29 30 32 34 36 39 40 42 45 46 49 51 54 56 57 59 61 63 64 65 66 67 69 71 72 72 73 73 74 74 73 73 72 72 71 70
32 32 31 30 31 32 34 35 35 36 38 40 42 43 45 46 49 51 53 55 57 58 60 62 65 67 68 69 70 71 72 72 72 72 72 72 72 71 70 69 68 67 66
32 32 34 34 35 37 37 37 38 38 39 41 42 44 47 49 52 54 56 58 61 62 64 65 66 67 67 68 69 71 70 71 72 71 69 68 67 67 66 65 64 63 61
35 36 38 38 38 39 41 42 43 44 46 48 50 52 54 56 58 60 61 62 63 64 65 66 67 68 69 69 67 66 66 65 64 62 61 61 60 61 60 58 57 57 57
44 44 45 45 47 48 49 50 52 53 54 55 56 58 59 59 60 62 64 65 66 67 67 65 63 62 60 58 56 55 55 56 57 56 55 55 55 55 55 56 57 58 59
51 52 53 53 53 54 55 56 56 57 58 59 60 61 62 63 63 63 64 64 64 63 60 60 59 58 56 54 54 55 54 55 57 56 58 58 59 57 58 59 59 59 60
55 56 57 58 58 58 59 60 61 61 61 62 61 61 61 60 59 58 59 59 59 59 59 58 58 58 58 59 59 60 60 59 59 59 59 60 59 60 60 61 62 62 62
58 59 60 60 61 61 61 61 60 60 60 60 60 61 61 61 61 60 59 59 58 58 57 58 58 58 59 60 60 61 60 60 60 60 60 61 61 62 63 63 64 64 63
59 60 62 63 64 64 64 64 64 64 64 64 65 64 64 62 60 59 59 59 59 60 60 60 60 60 60 60 60 60 60 61 61 62 63 63 64 65 65 64 63 61 58
54 55 56 57 58 58 59 59 60 60 60 61 61 60 60 59 59 59 59 60 60 60 60 60 61 61 61 62 62 63 64 64 65 65 65 64 62 60 58 55 52 50 48
58 58 59 59 60 60 61 61 62 62 62 62 62 62 62 62 62 62 62 62 62 62 62 63 63 63 64 65 65 64 64 63 61 59 56 55 53 51 48 46 45 45 47

GFSGL_500_spd_099.txt.gz
Wind_Speed
46 44 46 42 34 26 22 20 23 23 21 15 15 15 15 14 15 15 21 23 23 24 25 23 22 22 21 22 23 22 23 24 21 22 23 24 24 26 29 32 31 28 27
47 48 48 46 35 29 25 22 24 24 23 19 18 18 17 16 16 16 17 19 18 17 18 17 18 17 16 17 17 18 20 24 23 23 27 26 26 24 24 27 29 31 32
49 50 48 49 38 32 27 25 26 27 26 23 21 20 19 18 18 18 18 18 18 18 18 18 20 20 19 20 21 21 24 27 28 27 26 31 31 30 31 32 33 36 37
52 53 52 50 42 35 30 27 29 31 30 30 27 25 24 23 21 18 19 18 18 19 19 18 20 18 19 21 22 23 25 27 29 29 27 27 28 25 31 31 34 36 36
54 54 55 52 44 37 33 31 31 34 35 34 32 30 30 28 24 24 24 24 23 23 23 23 24 26 26 28 29 29 31 32 32 31 32 31 30 32 34 36 36 37 38
54 57 57 51 44 38 36 36 34 35 36 37 37 37 34 31 31 31 31 30 30 30 31 32 32 33 33 33 33 32 33 33 34 37 38 40 36 36 37 38 40 45 46
56 56 58 51 45 46 41 41 39 38 40 42 42 43 41 39 37 36 36 35 36 38 37 36 35 34 35 35 35 36 37 40 42 42 43 43 45 47 47 46 53 55 63
58 53 55 53 51 48 44 42 40 39 41 45 47 48 44 35 38 36 33 31 31 31 33 37 38 38 38 39 41 42 44 45 45 47 43 48 54 51 53 58 61 57 61
50 58 55 52 52 47 47 42 44 41 46 44 51 52 44 42 41 40 37 34 33 34 34 35 38 40 39 39 40 42 45 47 49 50 53 56 57 57 57 59 61 63 61
54 52 52 54 66 49 45 44 56 40 53 49 44 39 44 43 42 37 40 38 36 35 37 38 39 41 42 44 47 47 48 51 53 54 56 58 59 60 61 61 62 62 63
64 69 63 62 59 51 50 51 50 44 63 50 41 38 35 39 38 45 45 44 43 43 43 44 44 47 49 50 51 53 55 55 57 59 60 61 62 61 62 61 62 63 65
56 52 60 70 54 50 65 53 57 50 50 50 47 46 50 49 50 48 49 50 50 49 48 49 49 50 51 53 54 56 57 57 59 60 61 63 64 64 65 66 67 69 70
17 29 45 55 64 72 59 56 66 57 60 61 66 58 56 59 56 55 53 53 53 52 52 52 52 52 53 54 55 56 58 59 61 62 63 64 66 67 68 69 71 72 75
23 22 25 31 33 32 44 43 52 63 73 75 75 64 62 60 56 50 52 53 54 51 46 48 51 54 56 57 58 60 61 62 64 66 67 69 70 72 73 74 75 77 78
25 27 25 24 25 28 24 23 23 26 30 34 40 41 44 46 42 43 40 42 44 47 50 53 55 57 58 59 60 62 64 66 68 70 72 73 74 75 76 78 80 81 83
25 25 26 25 25 26 26 25 30 30 32 33 34 36 37 37 37 38 41 43 45 48 50 52 54 56 58 60 62 63 64 66 68 71 73 75 77 79 81 83 83 83 82
32 33 34 33 33 29 30 30 30 31 32 34 36 37 38 40 42 44 45 47 48 50 51 52 54 56 59 61 63 66 69 71 73 75 77 78 79 81 82 82 83 82 80
32 32 33 33 34 35 35 36 36 37 39 41 43 44 44 45 46 47 48 48 49 50 52 55 59 62 65 67 69 71 72 73 75 76 78 79 80 80 79 76 73 68 62
32 33 34 36 37 37 38 39 41 42 42 43 45 46 46 47 48 51 53 55 57 60 62 64 66 67 68 70 72 73 74 75 76 76 75 71 67 60 57 57 58 60 59
38 39 40 42 43 44 45 46 47 48 49 50 52 54 55 56 58 60 61 63 64 65 66 67 68 69 71 72 73 74 73 71 69 66 65 63 61 62 62 61 61 62 63
49 49 50 51 52 53 54 54 56 57 58 59 59 60 61 62 63 64 66 67 68 69 69 69 69 69 68 68 67 66 65 66 65 65 65 66 67 67 67 67 65 65 65
57 56 56 56 58 58 59 60 60 60 61 61 63 63 65 66 66 67 67 67 66 66 65 65 65 65 66 66 66 65 64 64 64 64 65 65 66 66 66 65 65 66 66
61 62 62 62 62 62 63 63 64 64 64 64 64 64 64 64 65 65 65 66 66 67 68 68 68 67 67 66 66 66 66 67 67 67 67 67 67 67 67 67 68 68 68
60 60 61 61 61 61 62 61 62 62 62 62 61 61 61 61 61 62 63 64 64 64 65 65 65 65 66 66 67 67 68 68 68 68 69 69 69 70 70 70 69 68 66
60 60 61 62 62 63 64 64 64 64 65 65 65 65 66 66 66 67 67 67 68 68 68 68 69 69 69 70 70 70 70 69 70 70 70 70 69 68 66 64 62 59 56
62 63 63 64 64 65 66 66 67 67 67 68 68 69 69 70 70 71 71 71 71 71 71 71 71 71 70 70 70 69 69 69 68 67 65 63 61 59 57 55 52 50 48

GFSGL_500_spd_102.txt.gz
Wind_Speed
42 43 41 40 42 41 35 33 29 22 23 22 18 20 18 16 14 13 16 13 13 13 12 18 21 23 22 21 24 26 24 25 21 23 18 15 17 21 21 19 19 23 25
41 39 40 41 40 43 36 34 30 24 24 24 21 23 20 19 19 17 16 23 21 20 20 25 27 25 22 21 21 21 21 20 16 17 19 21 22 24 23 23 24 23 24
42 40 42 43 42 44 39 35 31 27 26 27 26 25 25 22 20 19 19 21 24 23 23 21 27 23 21 22 23 21 21 20 20 20 23 26 26 25 25 25 27 28 29
39 42 44 44 45 47 41 35 33 29 29 29 30 29 27 25 22 20 20 22 22 22 22 23 26 25 27 26 25 24 24 23 24 23 23 25 24 27 28 28 30 32 32
39 42 45 47 48 48 43 35 33 32 32 31 33 34 31 26 23 23 22 22 23 24 25 27 28 26 28 26 24 26 27 27 29 28 26 28 27 29 32 33 35 35 35
37 44 48 50 49 47 45 38 37 36 33 33 35 35 34 32 32 31 31 30 29 30 30 29 30 32 30 30 30 31 33 34 33 34 34 33 32 35 33 35 38 40 40
40 46 51 53 52 51 48 43 40 41 39 38 37 39 38 38 38 39 38 38 36 35 35 35 37 38 37 37 36 37 37 37 37 38 38 40 40 40 38 41 47 42 43
41 47 54 56 57 56 52 47 45 47 45 43 41 40 41 41 42 43 43 42 42 42 41 42 43 43 42 41 41 40 40 39 39 42 42 41 42 42 46 47 47 51 55
39 47 52 55 57 58 55 51 51 51 51 48 44 43 42 46 48 50 49 47 46 44 43 38 37 34 33 33 35 40 41 40 38 40 45 45 45 47 48 50 51 53 56
42 43 48 51 56 54 55 57 57 58 53 54 52 49 47 47 52 55 57 51 47 46 47 47 42 36 36 34 36 37 38 46 46 47 53 52 52 52 53 54 56 57 59
45 42 45 45 49 51 54 62 70 60 56 57 54 54 47 55 52 51 41 46 49 51 46 43 44 45 46 47 49 52 53 51 52 53 54 55 55 55 56 57 58 59 62
18 40 48 49 51 59 60 62 74 71 57 71 82 63 48 55 49 46 50 53 55 48 50 54 55 55 53 52 52 53 53 54 55 56 56 56 57 59 60 61 62 63 65
23 19 25 42 58 61 56 59 66 64 61 56 59 47 52 56 59 54 50 53 57 62 62 59 60 61 59 56 55 53 54 54 53 54 56 57 59 61 64 65 68 69 70
24 26 24 20 22 22 42 54 55 59 61 58 62 60 55 65 62 65 59 61 66 71 70 67 65 65 61 58 59 57 50 51 54 57 60 62 64 65 65 67 69 70 72
23 24 26 27 27 25 25 22 23 21 21 24 35 39 45 52 55 58 58 66 68 72 66 57 55 57 57 57 54 52 54 56 59 61 62 63 64 65 67 69 71 73 76
28 27 27 26 27 28 29 29 30 31 31 33 33 30 29 28 31 34 36 37 38 40 39 40 42 46 46 47 51 54 56 58 60 61 62 64 66 68 71 73 76 78 80
39 38 37 33 31 31 29 31 30 29 31 31 33 32 32 34 35 35 33 33 35 38 40 43 45 47 50 52 54 55 57 59 61 63 66 69 71 73 76 79 81 82 82
35 35 35 36 36 35 35 36 36 37 37 37 37 38 39 39 40 41 42 44 44 46 48 50 51 52 54 56 58 59 62 65 67 70 72 74 76 78 79 81 81 81 80
36 38 38 39 40 41 40 41 42 42 42 42 42 41 42 44 45 46 48 51 52 52 53 54 55 58 61 63 65 68 71 72 74 75 76 77 78 80 80 79 77 74 72
43 43 43 43 43 43 45 45 44 45 46 46 47 47 47 48 50 52 53 54 57 59 61 63 66 68 70 72 72 73 74 75 76 77 78 77 74 73 72 72 71 70 69
51 51 51 51 51 51 52 52 53 54 55 56 57 57 57 58 60 61 63 64 66 67 68 69 70 71 71 72 74 75 75 75 73 72 71 71 71 72 71 70 70 70 70
57 56 56 56 57 57 58 58 58 58 58 59 60 61 61 62 63 64 65 66 67 68 69 70 70 71 71 71 70 70 71 72 72 71 71 70 70 71 71 71 72 73 73
63 63 62 61 60 59 60 61 61 61 61 61 62 63 63 64 64 65 66 66 67 67 67 67 67 67 67 67 67 68 68 69 70 71 72 72 73 74 74 74 74 74 74
62 63 63 64 63 62 61 61 62 61 61 62 62 62 61 61 62 63 64 64 64 65 65 67 67 69 69 70 71 71 72 73 73 74 74 75 75 75 74 74 73 73 72
62 63 64 64 65 66 66 67 66 66 65 65 65 66 66 66 66 67 68 68 68 69 70 70 71 71 71 73 73 73 74 74 74 74 74 74 73 72 71 71 70 69 67
65 66 66 67 68 69 69 70 70 71 71 71 71 71 71 70 71 71 71 72 72 72 73 73 74 74 73 74 74 73 73 73 72 72 71 70 68 67 65 62 60 57 56

GFSGL_500_spd_105.txt.gz
Wind_Speed
44 41 43 45 46 41 40 36 34 30 27 28 28 27 23 21 20 20 16 17 22 27 28 29 33 23 30 31 29 29 25 26 27 27 28 27 29 29 26 23 22 20 18
45 42 43 46 46 42 40 38 34 31 27 27 29 28 26 23 20 23 18 15 22 20 20 26 24 22 24 26 27 27 28 29 28 30 31 28 28 28 26 23 22 21 23
43 43 41 44 44 42 40 40 36 32 29 27 30 30 28 26 22 23 20 20 21 22 26 23 24 23 28 31 29 30 29 29 27 27 28 25 27 29 27 25 27 27 26
39 39 41 43 42 41 41 42 39 34 31 29 29 32 30 27 25 21 25 24 22 24 27 26 28 31 26 29 30 29 27 26 26 25 27 29 28 29 28 26 29 30 28
36 37 40 41 42 43 44 46 43 36 31 29 28 30 30 29 27 24 25 26 27 26 26 28 29 29 31 34 30 29 30 30 31 30 28 30 31 32 32 33 31 32 32
26 30 35 38 43 45 45 45 42 36 31 30 30 31 32 31 30 30 30 29 29 28 30 31 32 34 31 32 30 32 32 32 33 34 34 35 37 36 36 37 38 37 38
29 32 33 38 42 45 47 46 45 43 38 36 36 35 35 33 33 34 35 35 35 34 33 33 33 33 33 34 35 36 38 39 39 39 39 40 39 39 41 39 41 41 43
35 35 40 40 43 46 49 49 49 45 45 43 42 39 38 38 37 38 38 39 40 40 41 40 40 39 39 41 42 43 44 45 45 45 45 43 41 40 41 42 42 43 48
39 31 37 42 42 46 50 53 53 50 50 46 47 44 42 43 43 42 43 43 45 46 46 45 45 44 45 47 47 48 48 46 46 45 43 43 41 39 40 40 46 51 51
28 38 36 37 39 45 58 48 55 54 53 49 50 51 49 46 49 50 49 48 49 51 53 53 50 48 47 48 47 42 41 42 40 41 39 45 48 52 50 51 53 58 56
10 23 49 38 36 45 50 55 62 53 52 53 55 56 56 56 58 66 58 52 55 57 57 60 59 55 49 50 51 47 41 42 39 41 49 49 50 52 56 57 58 60 59
19 19 10 24 53 40 45 48 49 48 50 53 53 57 56 57 62 63 54 58 63 63 67 65 53 50 52 56 53 52 53 54 58 58 56 59 61 60 60 60 60 60 60
17 19 28 17 15 18 34 53 41 57 56 58 56 62 65 65 67 72 74 71 69 71 69 56 58 60 58 59 59 55 60 62 62 62 63 64 64 65 65 64 62 62 62
20 19 18 22 30 24 18 21 34 54 50 47 57 58 68 73 63 70 74 73 68 63 58 56 58 60 66 64 66 67 72 67 64 64 65 64 66 65 68 65 63 63 65
27 26 24 21 21 25 32 34 28 25 22 29 42 47 45 47 41 50 58 60 62 65 68 70 71 77 77 71 74 75 78 71 64 56 55 59 54 54 58 61 63 65 67
33 33 33 30 28 28 29 30 32 35 35 37 34 28 30 26 25 25 26 29 31 32 35 40 42 45 47 50 51 52 48 47 46 44 46 50 54 59 62 64 66 68 70
30 37 39 39 37 36 36 36 34 36 35 35 36 38 36 36 36 35 35 34 33 32 33 34 35 37 39 41 42 43 45 46 49 51 54 58 60 63 66 68 70 73 75
33 32 32 35 38 39 39 38 39 39 38 37 37 37 38 38 38 38 38 38 38 38 39 40 42 43 44 45 47 49 52 54 57 60 62 63 65 69 72 74 76 79 80
39 40 40 39 39 39 38 41 43 44 43 42 42 42 43 44 44 44 44 44 44 45 46 48 49 50 51 53 54 56 57 60 62 65 67 71 74 77 78 80 81 82 82
46 45 46 46 45 45 44 45 46 46 46 46 46 47 48 49 49 50 50 51 51 52 53 53 54 55 57 58 60 64 66 69 71 73 76 78 79 80 81 82 82 82 81
51 51 50 50 50 50 51 50 50 50 50 51 51 53 54 55 56 57 58 59 59 60 61 61 63 64 66 68 70 72 73 75 76 78 78 78 79 79 79 79 78 76 75
58 58 58 57 57 58 57 56 56 56 57 56 56 56 56 57 58 59 61 61 62 63 65 65 66 67 68 70 71 72 73 74 75 75 75 74 73 72 72 73 75 75 77
62 61 61 60 60 60 60 60 61 63 61 60 60 60 59 59 59 59 61 62 62 63 64 65 65 65 67 67 67 68 69 70 70 71 71 72 75 76 77 77 78 79 79
62 63 63 63 63 62 61 61 61 61 62 62 63 63 63 62 62 62 62 63 64 64 65 65 65 66 67 69 69 70 71 72 74 75 76 77 78 79 80 81 81 81 80
64 64 64 64 65 65 64 64 64 63 63 63 64 64 65 66 67 67 67 66 67 68 68 68 69 70 71 72 73 74 75 76 77 79 79 80 80 80 80 79 77 77 75
64 64 65 65 66 66 67 67 67 67 66 66 67 67 67 67 66 68 69 69 70 71 71 72 72 73 74 76 76 76 77 78 78 76 75 74 73 71 68 66 63 60 58

GFSGL_500_spd_108.txt.gz
Wind_Speed
59 61 54 44 48 48 48 48 42 38 40 38 35 34 30 26 27 29 26 21 22 21 24 30 35 37 36 38 37 38 33 30 33 35 37 37 36 35 35 33 32 32 32
53 54 54 55 53 47 47 46 42 41 41 39 37 35 29 25 27 29 26 22 18 21 23 30 35 34 35 36 31 30 37 34 38 39 36 35 36 34 34 35 32 32 32
47 48 50 53 51 50 46 45 43 42 43 40 38 35 30 26 27 27 29 21 17 19 23 24 24 29 32 30 27 31 36 36 36 34 34 34 35 36 37 35 33 32 33
36 37 38 45 49 46 44 43 42 43 45 40 40 37 31 27 26 27 30 25 23 21 25 26 23 28 28 28 26 27 31 31 33 33 35 38 38 36 36 34 34 35 36
36 38 41 42 42 41 43 42 42 44 46 43 42 38 30 28 29 29 30 30 26 26 26 28 29 30 31 34 35 32 32 33 34 33 31 34 35 35 35 37 36 37 36
35 37 37 40 38 39 40 42 42 43 44 44 39 37 33 32 31 30 31 33 30 28 28 29 31 34 35 36 37 35 38 37 36 34 34 37 40 39 38 37 37 38 40
31 32 31 29 34 38 38 35 40 37 41 44 40 39 37 35 35 33 32 33 35 32 31 31 32 32 33 36 37 37 38 39 38 39 38 38 38 39 40 39 41 42 43
29 30 29 32 35 35 39 45 43 48 46 46 46 46 43 38 37 37 35 35 37 38 37 37 37 37 36 36 36 38 39 40 41 41 42 43 43 43 44 44 46 48 48
21 28 32 36 35 37 42 43 41 50 51 48 52 48 49 45 43 42 39 39 39 42 42 43 42 42 42 43 43 46 47 47 46 47 48 49 49 49 49 50 52 53 49
15 23 25 37 39 38 43 42 43 47 47 53 62 53 47 49 50 48 44 43 44 46 47 46 46 47 48 47 49 52 52 52 52 52 54 55 55 54 54 54 52 48 49
10 10 16 21 35 41 45 50 55 49 49 47 43 57 50 55 50 50 49 50 50 47 54 53 60 54 54 53 54 58 58 60 56 53 54 54 51 51 48 52 52 56 62
18 17 13 14 16 32 34 33 48 48 50 58 58 55 52 53 52 53 52 53 53 53 55 55 52 61 62 58 61 64 69 65 61 56 58 54 60 61 64 67 64 63 63
23 22 19 18 19 23 18 14 35 44 38 44 48 51 58 54 57 51 54 55 54 59 59 59 66 67 69 65 69 71 65 55 59 65 64 64 70 70 66 63 66 69 70
25 25 23 21 21 22 23 27 25 20 21 40 50 51 53 58 61 66 61 63 65 70 74 74 76 72 72 68 64 68 65 70 69 68 68 71 70 75 77 73 74 79 79
24 27 29 29 27 27 27 25 23 28 30 31 29 25 26 33 41 52 54 55 59 62 65 71 75 78 73 73 74 73 73 78 73 77 77 77 82 79 81 80 76 69 69
25 26 28 30 34 36 35 34 34 33 30 31 33 34 36 38 38 34 27 28 32 42 52 56 61 60 68 77 72 72 74 67 66 70 68 65 66 65 64 63 62 61 58
31 32 33 33 34 35 38 40 41 40 40 40 39 37 36 37 38 41 44 43 39 36 33 34 36 38 40 40 41 43 47 47 49 50 50 50 49 51 52 54 54 56 60
38 39 39 38 39 39 38 39 38 37 38 41 42 42 42 42 40 40 39 40 40 41 43 43 42 42 41 42 43 43 44 44 45 46 47 50 53 55 57 60 62 64 65
44 44 43 43 44 44 45 45 44 44 43 42 41 41 42 43 44 44 44 45 45 45 45 45 44 44 44 45 46 48 49 49 50 52 54 57 59 61 62 64 66 68 71
48 49 49 48 47 47 47 48 49 48 47 47 47 46 45 46 46 46 47 48 49 49 49 50 50 50 50 51 52 53 54 55 56 58 60 62 65 67 68 70 74 76 79
56 57 57 57 55 54 54 54 53 53 53 52 52 52 51 50 50 50 51 52 52 53 53 54 54 55 56 57 58 59 60 62 63 65 67 69 71 72 73 75 76 78 77
60 61 61 61 61 61 61 60 59 59 58 58 58 58 58 58 56 55 55 55 56 57 58 58 58 59 60 61 62 63 63 64 66 67 68 70 70 71 72 73 73 72 73
68 68 66 64 64 64 63 63 62 62 61 62 62 62 62 62 62 62 61 60 60 60 59 61 62 63 63 63 64 65 66 67 67 67 68 69 69 70 71 73 74 76 78
67 66 65 65 63 63 64 64 64 64 63 62 62 63 63 63 63 63 64 64 63 63 63 63 64 64 64 64 65 66 67 67 68 69 70 72 73 75 76 77 79 80 82
71 69 68 66 65 63 63 64 64 63 63 63 63 63 64 65 65 65 64 64 65 66 66 66 65 66 67 67 68 69 70 71 72 74 75 75 76 77 77 78 79 79 78
59 58 58 59 61 61 62 63 64 64 64 63 62 62 62 63 64 65 65 65 66 66 67 68 69 70 70 70 70 71 72 72 73 72 73 73 73 72 72 72 73 72 70

GFSGL_500_spd_111.txt.gz
Wind_Speed
47 47 51 53 51 49 47 48 43 46 46 44 41 44 40 40 39 36 32 32 27 28 29 29 28 26 36 33 38 36 34 32 30 33 33 31 31 33 37 35 36 37 39
51 53 53 55 55 51 45 47 44 44 48 46 48 42 41 42 40 37 34 33 28 27 28 28 23 23 28 37 37 37 38 31 35 36 31 33 33 34 38 39 38 38 38
48 50 51 52 54 56 56 56 54 57 47 46 47 43 44 42 41 38 35 33 30 27 29 26 24 20 30 32 35 39 40 37 40 37 33 35 39 40 40 39 37 35 36
40 41 40 39 42 48 51 52 50 52 46 45 44 43 43 41 42 39 37 34 32 29 27 27 27 24 23 28 33 36 33 34 31 34 35 32 32 33 34 35 37 38 42
38 38 36 37 37 39 41 48 46 41 41 45 45 42 44 41 41 39 40 36 33 32 27 28 29 25 25 26 27 35 37 34 30 28 29 29 30 34 36 39 41 42 45
35 37 37 37 38 38 38 40 40 38 39 46 48 44 45 42 41 41 42 39 36 33 30 29 29 30 29 28 29 28 31 30 32 31 32 35 35 39 39 39 41 42 45
30 33 36 37 38 38 36 36 37 35 43 44 46 39 46 45 45 43 44 43 39 35 32 32 33 32 32 33 32 36 37 35 34 35 38 43 37 38 43 42 42 43 44
22 29 34 36 36 37 38 39 38 39 39 54 60 44 48 46 50 45 46 46 43 39 36 34 35 36 35 34 35 36 38 40 44 41 41 43 42 42 47 47 45 44 45
16 18 24 32 35 36 36 42 33 33 40 38 37 42 43 42 48 47 48 48 46 42 40 39 38 37 38 39 41 41 41 42 44 45 45 45 45 45 46 47 49 49 50
14 16 18 23 28 36 36 37 35 38 43 51 52 49 60 48 53 53 55 54 52 47 44 43 42 40 39 39 41 46 47 48 49 49 51 51 50 50 51 51 51 54 59
16 15 15 17 21 31 33 38 44 43 45 49 55 52 49 47 50 53 59 59 55 52 52 49 47 47 46 48 47 50 51 49 54 55 55 53 55 55 56 57 57 56 60
22 21 20 19 18 21 22 25 30 39 47 47 47 51 51 56 43 54 55 58 64 57 58 53 50 50 51 52 51 47 50 57 57 57 60 59 62 65 67 68 61 60 62
24 25 25 26 25 25 22 23 21 22 33 41 43 56 58 54 54 52 47 49 65 60 68 61 57 53 58 58 48 49 55 53 64 63 63 63 64 68 74 65 66 65 68
28 28 28 28 28 27 28 27 27 26 28 29 25 24 42 52 53 53 59 55 60 54 55 51 61 61 59 62 63 71 63 61 66 74 76 81 81 75 73 68 69 74 75
29 30 29 30 31 30 30 29 31 32 33 32 32 34 31 30 30 30 32 40 48 52 60 57 66 63 66 68 68 73 71 71 77 80 78 80 76 76 79 77 72 80 81
32 33 33 34 33 33 33 33 33 34 36 39 40 40 36 36 37 37 37 39 36 34 39 49 54 57 63 67 68 67 70 70 71 73 76 79 75 69 69 75 78 81 72
37 38 38 39 39 38 39 39 39 39 39 40 40 43 45 47 46 44 43 42 40 42 43 41 39 38 40 43 47 53 58 64 67 71 71 76 75 71 69 63 63 63 62
43 43 43 43 44 44 44 43 44 44 44 44 45 44 45 46 47 50 49 48 48 46 45 45 48 46 44 45 46 46 46 45 47 48 49 50 51 53 53 54 54 54 56
46 46 47 48 48 49 49 50 51 50 50 50 50 50 49 48 47 48 48 48 49 49 48 49 49 48 47 46 47 47 48 49 50 50 51 52 53 53 53 53 54 55 57
47 48 49 51 53 54 55 56 56 55 54 54 55 54 53 52 52 50 50 50 50 50 50 49 49 49 49 49 49 49 50 50 50 50 50 51 53 54 55 56 57 59 61
52 53 54 55 57 58 59 60 61 61 62 62 62 61 60 59 57 56 55 53 52 53 53 53 54 54 54 54 54 54 54 54 55 55 55 56 57 58 59 60 61 62 64
60 61 63 63 63 63 64 65 66 67 67 67 66 65 65 65 64 63 62 61 60 59 58 57 58 57 57 57 57 58 58 57 58 59 59 59 60 62 63 64 65 66 68
68 69 70 70 71 72 73 72 71 71 70 69 68 67 67 66 65 65 65 64 64 64 64 63 63 62 62 62 63 62 63 64 64 63 64 65 66 66 67 67 68 69 70
75 75 75 75 74 73 72 71 70 69 68 66 65 65 66 65 65 65 65 65 65 65 66 65 65 65 65 65 65 65 65 65 66 65 66 67 67 68 68 69 69 70 72
73 72 70 68 66 64 61 60 60 62 63 63 64 64 64 65 64 63 63 64 65 65 66 66 67 66 66 66 65 66 65 65 66 66 66 68 69 69 70 71 72 73 75
62 59 55 52 51 50 49 49 49 51 53 55 59 62 63 63 63 63 62 63 63 64 65 65 65 66 66 67 66 67 67 67 67 67 68 69 69 70 70 71 71 71 71

GFSGL_500_spd_114.txt.gz
Wind_Speed
45 45 47 48 51 48 50 47 48 49 49 45 46 46 45 43 40 39 41 39 37 35 35 32 30 26 30 32 30 31 36 40 40 37 37 35 38 36 34 34 35 39 41
47 47 45 44 45 47 51 52 50 53 51 49 52 51 47 46 50 47 43 41 38 37 36 35 32 28 25 31 31 31 34 34 36 32 32 33 34 36 36 33 31 35 37
45 47 45 46 47 46 48 50 52 54 53 52 51 48 46 47 48 54 43 42 38 38 37 36 36 29 25 32 28 29 29 34 38 43 36 34 36 34 32 30 31 32 33
46 51 51 52 50 49 50 48 50 54 55 49 50 54 52 53 48 46 47 43 40 40 39 36 38 30 26 33 30 25 28 33 38 43 40 34 39 35 33 36 37 33 35
32 37 42 45 45 42 39 44 43 47 49 52 54 53 49 50 41 42 43 43 43 41 41 37 39 33 30 31 30 27 26 29 36 38 30 33 31 33 29 25 30 30 32
29 33 35 38 41 37 39 39 39 37 37 40 46 51 49 39 39 41 40 43 41 40 42 40 39 36 33 31 30 29 28 27 27 32 34 33 28 26 25 32 33 34 34
24 28 32 35 37 37 38 36 37 38 38 37 38 38 39 41 44 48 55 45 43 43 45 43 41 39 36 33 33 32 29 26 30 27 29 30 28 27 32 36 39 39 38
14 17 21 27 32 35 37 38 39 39 38 34 36 38 42 44 47 51 48 45 47 48 48 46 44 41 41 37 38 35 33 32 33 31 33 37 40 40 35 41 43 42 42
12 13 13 17 20 28 33 35 37 36 39 42 39 40 46 46 46 48 50 47 49 49 52 52 48 45 45 41 38 38 37 40 39 35 39 37 42 37 38 44 47 46 45
15 15 16 17 18 18 22 26 32 35 38 38 37 37 41 45 43 37 42 40 49 46 49 53 51 47 46 46 44 41 41 42 41 44 42 45 48 48 48 48 52 48 50
21 24 24 23 22 21 21 22 25 30 36 42 42 42 48 36 36 34 37 51 52 51 55 55 55 57 54 51 47 48 47 44 43 43 46 48 49 52 52 53 53 55 55
24 25 26 27 28 27 26 24 25 26 30 33 40 45 49 49 46 49 55 54 46 49 56 61 63 66 55 59 52 55 55 49 49 49 52 52 53 53 56 55 56 55 53
28 28 28 29 29 30 31 30 29 28 25 27 32 34 41 49 52 51 49 52 56 49 56 54 57 62 65 54 52 53 52 53 52 52 55 56 47 51 54 59 61 57 66
31 32 32 32 33 33 32 32 32 31 31 33 32 31 33 33 33 37 45 52 61 65 54 50 61 59 62 55 54 62 67 58 58 55 58 60 58 62 60 59 62 63 68
34 35 36 36 36 37 37 36 36 37 36 36 36 37 37 37 37 36 37 34 33 33 38 48 52 55 56 58 63 71 66 62 63 60 63 65 61 64 67 66 70 73 70
38 39 39 40 40 40 41 41 41 41 41 41 41 41 40 40 42 43 42 41 41 40 39 36 37 39 44 51 59 60 60 63 69 74 74 71 68 69 72 71 76 77 77
41 42 43 44 44 45 46 46 47 47 46 46 46 46 45 45 45 46 45 44 44 45 44 43 44 43 44 44 44 45 48 53 54 59 61 66 66 66 66 67 67 69 70
46 47 48 49 49 50 50 51 51 52 52 52 52 51 50 49 48 50 50 49 49 48 47 46 49 50 49 49 49 49 48 48 46 47 48 48 50 52 54 54 56 57 58
45 47 48 48 49 50 51 52 53 53 53 54 54 54 55 55 54 54 53 53 54 54 52 51 49 48 50 52 54 53 52 51 52 55 57 56 54 55 55 55 55 57 58
50 51 53 54 55 55 55 56 56 55 55 56 56 56 56 57 58 59 58 57 56 55 55 55 55 54 52 51 50 51 52 52 53 53 53 53 54 54 54 55 56 57 58
60 62 63 64 65 66 66 66 67 67 67 67 66 65 65 64 62 62 62 64 64 63 61 60 58 57 57 57 56 55 55 55 56 55 56 57 57 57 57 57 58 58 59
64 64 65 66 67 68 69 70 71 72 73 73 73 72 72 71 71 70 69 68 68 68 68 68 66 64 63 62 61 61 60 60 60 59 59 59 59 60 60 60 61 61 62
69 71 73 74 75 76 77 77 77 77 76 76 77 77 77 76 76 75 74 73 71 71 70 70 70 70 69 68 67 66 66 66 66 66 66 65 65 65 65 65 66 66 67
77 78 80 80 79 77 75 74 73 72 71 71 71 71 70 70 70 71 71 72 71 70 70 70 70 70 70 69 69 68 68 68 68 68 68 68 68 68 68 69 69 70 70
73 72 72 71 68 64 62 59 58 57 56 56 56 57 59 60 63 65 66 67 68 68 68 68 68 69 69 69 69 69 69 68 68 68 68 68 68 68 68 69 69 70 70
68 63 58 54 51 49 48 47 46 46 46 47 47 48 48 50 51 52 55 58 62 65 65 65 66 66 66 67 67 67 67 67 67 67 67 67 67 67 68 68 69 69 69

GFSGL_500_spd_117.txt.gz
Wind_Speed
59 57 55 54 56 51 48 49 49 50 47 53 51 47 46 46 47 43 40 40 41 41 40 39 38 35 35 31 30 31 30 28 31 37 38 38 37 36 38 35 38 40 39
52 53 52 49 51 56 55 52 50 51 53 49 50 51 50 51 48 44 46 43 45 50 49 45 40 39 37 34 31 33 30 28 30 33 37 38 40 43 41 38 42 39 38
46 46 46 49 51 47 44 41 45 48 46 47 53 53 54 55 52 49 48 47 47 51 52 55 42 42 38 36 33 34 34 26 32 34 37 36 38 38 38 38 37 31 34
47 44 44 43 44 44 46 46 45 45 46 47 51 55 58 58 56 55 52 51 48 51 49 52 46 44 40 37 34 35 34 27 31 30 26 33 38 40 40 35 40 36 34
39 42 44 47 46 45 49 49 48 48 49 52 53 54 58 60 59 54 51 51 51 50 51 49 50 47 43 39 36 35 35 31 32 33 32 33 38 45 40 35 33 33 36
26 28 34 47 50 49 47 46 48 49 48 48 48 48 48 51 52 55 57 56 55 48 52 50 50 49 45 41 39 35 36 35 33 34 31 32 32 35 36 34 34 30 26
16 20 25 30 35 38 40 43 46 44 42 43 44 43 42 44 47 48 51 52 49 57 47 43 50 48 47 42 41 38 38 37 36 34 35 30 30 29 32 31 29 25 27
12 14 17 20 23 29 35 39 42 43 43 43 42 43 43 43 44 43 44 48 48 54 48 47 56 52 48 45 44 41 40 40 40 34 34 35 30 33 29 28 27 34 35
9 9 10 11 11 14 18 24 30 35 39 42 44 45 44 44 46 43 44 43 48 48 41 55 58 50 48 48 48 44 43 41 44 40 37 37 36 34 33 33 37 41 38
14 16 18 18 16 16 16 17 20 23 27 31 35 40 42 46 43 42 43 48 45 37 37 48 50 49 48 50 51 50 49 45 45 45 41 42 41 42 45 43 44 40 45
18 20 22 22 22 22 22 22 22 21 22 25 30 36 37 42 44 43 45 44 47 48 50 47 44 52 49 55 56 58 54 51 50 47 49 46 46 49 49 48 47 44 45
22 23 25 25 27 27 26 26 26 26 26 26 27 29 33 40 42 49 45 48 44 42 43 51 57 44 48 57 55 56 57 57 59 52 53 52 51 52 51 49 50 54 53
25 26 27 28 29 30 30 30 30 30 30 30 30 31 31 32 34 36 40 50 53 52 55 55 53 55 56 55 58 61 63 64 51 59 62 62 58 56 54 54 55 56 56
31 32 33 33 33 34 33 33 34 35 36 36 35 34 35 36 36 36 38 38 38 38 48 56 58 57 59 53 58 57 58 59 67 64 66 67 66 60 58 58 58 53 59
36 36 37 38 39 40 40 39 40 40 40 41 42 42 41 40 39 40 40 40 40 38 36 38 45 52 54 56 63 68 63 63 66 70 65 69 71 60 61 63 65 68 58
38 39 40 40 40 41 42 43 44 45 46 46 46 46 45 46 46 46 45 44 44 44 44 43 42 42 43 44 45 50 53 57 58 61 65 66 71 67 65 67 69 65 63
42 43 43 44 45 46 46 47 47 48 49 50 51 52 51 50 49 50 50 50 50 49 48 47 46 45 46 47 48 49 48 45 46 47 47 50 55 59 59 64 66 66 68
42 42 43 44 44 45 46 47 47 48 50 51 52 53 54 55 55 54 54 54 54 53 53 54 53 52 51 49 47 49 52 54 54 54 51 49 49 50 50 50 51 53 55
45 47 48 50 52 54 55 55 56 55 55 55 55 54 53 54 54 55 55 56 56 57 57 57 57 57 57 55 54 53 52 52 53 56 56 54 55 57 57 55 54 53 53
56 57 58 60 61 63 64 65 66 67 67 66 66 66 66 65 64 63 63 61 59 58 57 58 59 59 59 59 59 58 57 57 56 56 56 56 56 56 56 55 57 58 59
58 59 61 62 64 65 67 68 70 70 71 72 72 72 72 73 73 74 73 72 71 70 68 66 64 62 62 64 64 64 62 62 61 61 60 60 60 59 59 59 59 58 59
62 64 66 68 70 72 74 75 76 77 77 78 78 78 78 78 78 78 77 76 76 76 75 73 72 70 70 68 67 67 69 68 67 66 65 65 64 63 63 63 63 63 63
68 71 74 76 78 80 81 81 82 82 82 82 82 82 82 81 81 81 81 82 81 80 79 78 77 76 75 74 73 72 71 71 71 71 71 70 70 69 68 67 67 67 67
74 76 77 78 79 79 79 78 77 75 73 72 71 70 69 69 68 68 69 71 73 75 76 76 76 75 74 73 72 72 73 73 73 73 72 72 72 72 72 71 71 70 70
77 77 75 73 69 65 61 58 56 54 53 53 53 53 53 53 54 55 56 58 61 63 66 68 70 71 71 71 71 71 71 72 72 72 72 72 71 71 70 71 71 71 71
69 64 60 56 53 52 50 49 48 47 47 47 46 46 46 45 45 45 46 47 49 50 52 53 56 59 61 63 65 66 67 67 67 68 69 68 68 68 68 68 68 68 69

GFSGL_500_spd_120.txt.gz
Wind_Speed
66 65 58 56 57 45 43 48 45 44 46 47 47 48 46 49 50 49 45 45 42 44 43 41 40 40 41 40 40 40 39 37 36 32 28 31 35 36 37 35 40 40 38
44 46 47 44 47 46 45 49 50 48 49 49 47 46 50 52 53 52 50 49 49 47 41 41 43 44 46 49 48 44 42 40 39 36 31 27 30 38 41 41 40 43 43
46 47 45 46 47 47 49 51 54 56 55 52 51 53 49 52 51 53 54 52 50 44 41 44 45 46 47 51 52 51 45 43 40 39 33 30 30 36 40 41 44 44 46
40 41 46 49 50 51 49 48 50 50 48 48 50 50 51 51 49 52 54 54 54 50 51 50 47 48 51 51 51 51 45 43 42 40 37 33 30 32 37 39 44 44 42
43 44 44 45 45 45 43 45 49 51 49 51 51 53 53 52 49 49 52 55 56 55 54 54 52 49 54 53 51 51 48 46 43 40 39 34 33 34 34 36 39 40 42
37 38 31 35 42 47 49 49 47 50 51 51 54 55 53 52 52 52 57 58 58 59 57 58 58 56 56 49 48 49 50 48 43 40 41 37 35 38 36 36 39 48 46
36 36 31 30 37 46 48 52 55 55 54 54 54 59 58 56 54 54 56 55 55 54 52 56 60 58 56 46 51 52 58 51 46 42 42 40 38 38 38 37 39 42 43
12 16 15 19 21 24 29 34 40 48 52 54 53 54 54 54 54 56 54 53 52 51 52 55 57 57 51 56 51 48 54 48 48 45 44 41 41 40 38 37 37 38 39
5 6 10 11 12 14 14 18 24 30 37 43 47 51 52 53 54 52 51 52 50 49 51 51 52 53 49 41 55 47 50 55 50 46 46 44 42 41 39 39 39 37 33
11 12 16 17 18 19 19 19 19 19 21 26 31 37 42 46 50 51 48 44 45 46 47 50 45 51 51 48 44 50 56 60 52 49 48 46 45 42 42 43 43 40 40
17 18 20 21 21 21 21 23 24 25 25 26 25 26 32 36 41 42 44 48 51 55 48 48 50 52 40 46 49 57 53 54 50 49 52 51 49 47 46 46 47 50 48
19 21 23 25 26 26 27 27 27 28 29 29 30 31 32 32 32 35 41 44 45 47 48 44 49 50 49 54 53 54 49 56 47 50 53 52 56 57 54 52 49 52 57
24 25 26 28 29 30 30 31 32 32 32 32 32 32 33 35 36 36 36 36 36 39 46 50 50 50 48 49 49 52 53 48 50 50 50 55 60 58 59 62 55 56 57
32 32 33 35 35 37 38 38 39 39 40 40 40 39 38 38 38 39 40 40 41 40 40 41 43 51 55 55 55 54 58 55 51 53 58 63 62 63 64 69 65 70 67
38 40 41 43 42 42 43 42 43 44 44 46 46 47 47 47 46 45 45 44 44 45 45 45 44 44 45 45 48 55 58 60 59 63 58 63 68 66 68 61 65 67 62
44 45 46 46 47 47 47 45 46 47 48 49 49 50 51 51 52 52 52 52 51 50 49 49 49 48 47 47 49 51 51 48 49 55 60 64 65 63 65 68 68 71 71
45 45 45 45 45 46 46 46 46 46 48 48 50 52 53 54 54 54 55 56 56 56 55 55 54 54 54 53 53 50 50 53 55 53 53 52 53 58 62 63 64 67 71
40 42 43 45 47 49 50 52 53 54 54 54 54 55 54 54 53 54 54 54 55 57 58 59 59 59 59 59 57 56 55 54 54 54 54 56 56 56 56 55 53 53 53
49 51 53 55 56 58 59 60 61 62 63 63 63 64 64 64 64 64 63 62 61 60 59 58 57 58 60 61 62 62 61 61 60 59 59 59 58 57 56 57 58 58 58
53 55 56 57 59 60 62 64 65 66 67 67 68 69 69 69 69 69 70 70 70 69 69 68 67 65 63 62 60 60 60 62 62 62 61 61 61 60 59 59 59 59 59
57 59 61 63 65 66 68 69 71 73 74 75 75 76 76 77 76 76 76 76 75 75 74 73 72 72 72 72 70 69 68 65 63 62 63 63 62 62 62 62 63 63 63
62 64 66 68 70 71 73 75 77 79 80 82 83 85 86 87 87 86 85 83 82 80 79 79 78 77 76 75 74 73 72 72 71 69 68 67 66 67 67 67 67 67 67
67 70 73 76 78 80 80 80 81 81 81 82 82 82 82 82 83 84 83 81 80 79 78 77 76 77 78 79 79 78 77 76 75 74 74 73 73 72 71 71 71 72 72
77 80 80 80 78 76 73 70 67 65 63 62 60 59 58 58 58 59 60 61 63 64 65 66 67 68 69 71 73 74 75 76 76 76 76 75 75 75 76 75 75 74 74
80 77 73 69 64 60 57 54 52 51 50 50 49 49 48 48 48 48 49 49 49 50 52 53 55 57 59 62 65 68 70 71 72 72 73 73 74 74 74 74 74 74 74
70 65 60 56 53 50 47 45 44 43 42 42 42 42 43 44 45 45 45 45 45 45 45 45 46 47 48 50 52 54 55 57 59 61 64 66 67 68 69 69 70 70 70

GFSGL_500_spd_123.txt.gz
Wind_Speed
58 61 71 72 72 77 66 45 47 39 37 38 38 38 41 42 43 42 45 47 49 51 52 46 50 45 47 45 43 40 40 40 42 36 37 39 39 38 37 39 40 42 37
48 63 66 70 71 77 50 35 35 33 34 39 41 40 40 42 43 42 44 47 50 49 51 49 41 43 46 47 45 41 42 43 47 42 43 43 42 42 39 38 39 44 44
49 51 60 61 63 37 37 38 42 37 39 43 40 42 45 46 46 46 45 46 48 51 53 50 45 47 43 48 42 43 44 46 47 46 42 44 43 42 42 38 36 41 42
22 32 61 68 68 65 60 44 39 45 44 43 45 47 49 51 53 53 49 50 50 49 48 51 52 51 50 46 47 47 47 49 51 48 47 42 43 41 43 40 39 38 43
20 19 41 48 51 58 45 41 49 43 44 47 48 53 54 55 55 57 55 55 54 51 49 52 53 50 48 53 55 52 52 52 54 49 50 44 45 43 42 42 41 39 38
23 23 27 34 41 42 39 39 40 40 45 47 49 52 52 53 53 55 57 60 60 58 53 54 56 54 51 53 54 58 58 55 44 48 53 52 47 45 44 44 42 42 40
30 30 32 31 33 38 36 39 43 46 49 50 51 52 53 55 56 56 57 58 58 60 58 57 58 58 56 55 58 58 60 60 56 52 47 45 51 48 47 44 44 42 43
27 32 25 28 30 31 32 34 37 43 49 53 54 57 58 58 59 60 61 61 62 63 64 63 60 59 59 59 58 58 59 56 56 57 54 49 53 54 46 46 46 46 44
10 11 17 16 20 24 28 27 28 29 32 36 41 45 49 52 55 61 63 63 64 65 66 64 62 62 58 57 57 58 56 55 57 49 50 54 52 52 48 47 48 45 43
7 11 14 14 18 20 22 22 23 25 25 25 26 30 34 41 48 53 55 58 61 63 63 63 60 57 57 57 56 56 51 50 51 54 51 56 53 54 55 50 49 47 45
12 14 15 18 20 23 24 25 26 28 29 30 31 31 32 33 33 34 38 47 53 55 54 52 51 52 51 53 53 49 47 50 48 51 53 53 57 60 54 54 50 49 47
17 19 20 22 24 25 27 29 30 31 32 33 33 33 35 36 38 38 38 37 36 36 44 50 54 58 58 64 64 57 57 54 52 50 52 57 61 54 53 56 55 53 51
20 22 24 26 28 29 31 32 34 36 37 37 38 39 39 40 41 41 41 41 41 41 41 40 42 44 52 55 56 50 51 51 54 55 57 56 59 62 67 60 56 58 58
28 30 33 36 37 38 40 42 43 44 46 47 47 47 47 47 47 47 47 47 47 47 46 45 45 45 45 44 45 51 59 54 55 53 57 54 58 61 61 59 63 67 66
37 39 41 44 46 48 50 52 51 52 53 54 55 56 56 55 55 54 54 54 53 53 53 53 52 50 49 49 49 49 49 50 53 60 58 55 56 60 58 57 61 63 64
47 48 49 50 51 51 51 51 50 52 52 54 56 57 58 58 58 59 59 58 58 58 57 58 58 58 57 55 54 53 52 52 51 52 52 54 59 60 57 60 62 64 65
40 40 41 42 43 45 47 48 49 50 50 52 54 54 55 56 57 57 58 59 59 60 60 60 61 61 61 61 60 59 58 58 57 56 54 54 55 55 59 60 59 62 65
45 47 48 50 51 52 54 56 57 59 61 62 62 64 65 65 65 66 66 66 65 63 63 62 61 60 60 61 61 61 61 61 61 61 60 59 59 58 56 56 58 60 60
51 53 54 56 57 58 59 61 62 63 65 65 65 65 66 66 67 68 69 70 70 69 69 69 68 68 67 66 64 63 61 61 61 62 62 62 62 62 62 62 60 59 58
56 57 59 60 62 63 65 67 68 69 70 70 71 71 73 73 73 73 73 73 73 73 74 73 73 72 72 72 72 71 70 68 67 66 64 62 61 60 61 62 63 64 64
61 61 61 62 65 67 69 71 73 75 77 78 79 78 81 81 81 82 82 82 82 81 81 80 79 78 77 76 76 75 74 74 74 73 71 69 68 66 64 63 62 62 63
63 64 67 70 72 76 80 83 85 85 84 84 83 84 84 85 85 86 87 87 88 88 88 88 87 84 83 81 81 80 79 78 78 77 76 75 74 74 73 71 70 68 67
69 72 76 79 84 87 87 83 78 73 70 68 67 66 65 65 65 66 68 69 71 72 73 75 76 77 78 78 79 79 79 80 80 81 80 79 78 76 75 74 73 72 72
76 81 84 85 80 74 68 63 59 55 52 50 50 49 48 48 49 50 51 52 52 52 52 52 53 54 55 58 61 65 67 69 72 75 77 78 79 79 78 78 77 77 76
83 84 79 72 65 59 54 51 49 47 45 44 43 43 43 43 42 42 42 42 44 45 46 46 45 45 45 46 47 49 52 56 60 65 68 70 72 73 74 75 76 75 76
80 73 65 59 56 54 52 51 51 51 49 48 47 45 44 42 41 41 40 40 39 40 41 42 42 42 42 42 42 42 43 44 47 49 53 56 59 61 64 66 68 69 70

GFSGL_500_spd_129.txt.gz
Wind_Speed
17 7 10 29 44 55 74 83 79 68 48 43 59 69 65 70 63 62 58 58 52 48 44 42 44 45 43 42 41 35 41 44 34 33 33 36 33 39 38 40 43 42 39
34 17 10 34 26 40 66 76 74 79 74 45 59 65 59 59 61 62 62 50 54 51 47 45 44 43 43 40 43 42 41 39 35 35 30 32 36 36 38 42 42 45 44
22 5 13 14 29 42 62 62 61 63 57 34 45 65 61 38 67 65 68 67 59 53 49 48 46 48 47 43 40 39 40 42 39 37 33 34 35 36 37 41 40 43 46
15 4 12 9 27 44 64 62 24 36 24 31 39 63 60 52 54 67 62 60 57 51 53 52 53 51 50 46 42 42 40 40 41 39 37 36 35 36 39 46 39 42 43
20 14 11 7 17 41 59 42 58 50 36 31 29 31 41 63 36 64 53 47 46 47 43 45 45 46 47 48 49 49 48 46 47 46 43 42 39 39 43 43 41 45 45
11 10 5 14 12 25 29 45 44 50 26 19 21 28 36 29 33 46 38 35 30 36 42 45 48 49 49 51 53 55 57 55 54 51 50 49 46 43 48 46 47 47 48
8 11 8 12 8 17 21 18 12 9 7 19 24 28 26 35 35 31 29 35 46 47 48 50 53 53 53 55 56 56 57 58 59 58 56 51 52 48 54 53 52 51 51
4 6 7 1 11 10 10 15 18 13 19 13 18 19 22 23 30 34 38 43 44 49 52 56 54 56 57 58 59 59 58 58 59 59 58 55 51 58 53 53 53 53 51
18 16 14 6 1 7 11 17 10 7 10 11 16 21 25 27 31 34 38 43 46 48 50 53 56 58 61 61 63 63 64 63 63 62 61 62 58 55 59 59 58 59 58
14 13 12 11 9 8 9 10 10 12 14 14 16 18 21 22 25 28 30 34 36 39 42 46 51 54 57 59 61 63 65 67 65 65 65 64 64 64 66 62 61 60 60
10 10 8 9 9 8 9 10 13 15 16 18 19 21 23 26 29 31 32 35 39 40 42 45 46 46 47 49 50 53 56 60 62 61 61 61 61 63 63 62 61 60 58
6 8 10 13 15 14 16 19 21 23 25 28 30 31 33 34 35 36 37 38 39 40 41 45 47 48 50 50 50 50 51 52 53 51 54 59 61 61 61 59 60 63 63
13 15 17 20 24 27 29 31 33 35 37 40 42 44 45 46 48 50 50 50 50 50 51 51 51 53 53 54 54 53 54 53 51 52 52 52 53 58 60 60 58 60 54
22 24 28 31 34 37 38 40 42 44 46 48 50 51 54 56 57 58 59 60 61 61 61 62 63 63 63 64 63 62 61 59 58 57 57 54 53 51 53 56 61 62 61
24 27 32 37 41 43 45 45 45 46 47 50 53 55 54 54 56 59 61 64 65 64 63 64 66 67 67 67 66 67 68 67 66 65 62 61 60 58 56 55 55 55 56
30 34 37 41 44 46 46 47 49 51 51 51 54 57 59 60 60 62 64 65 67 68 70 70 70 69 68 66 65 64 64 64 65 66 67 66 65 63 63 62 61 58 57
32 36 37 40 42 44 45 47 49 53 54 54 57 61 65 67 68 69 72 72 73 75 76 76 76 77 77 77 76 73 71 69 68 67 66 65 67 68 67 66 65 64 62
35 37 40 43 46 48 49 50 53 56 60 65 68 71 73 75 76 77 82 84 85 86 85 84 84 83 83 83 83 82 79 77 74 73 71 70 68 66 67 68 68 66 65
38 41 45 48 49 51 54 58 62 67 72 76 79 80 83 86 86 86 86 86 87 88 89 90 89 88 87 85 84 84 83 82 80 77 76 74 71 70 69 68 67 67 66
42 45 47 50 54 58 63 67 71 75 78 81 84 86 87 86 88 91 93 96 96 96 96 96 96 97 96 94 91 88 87 86 84 82 80 77 75 73 72 70 70 69 69
47 51 55 60 63 67 70 74 77 80 84 86 86 87 90 92 92 89 85 80 77 75 74 74 75 75 77 80 83 85 88 91 90 87 85 82 80 77 75 74 73 72 72
54 58 63 67 70 73 77 81 84 85 85 87 90 90 86 81 74 69 67 64 62 61 59 58 58 57 58 59 63 65 69 76 82 86 88 87 87 84 82 80 79 78 76
61 65 69 73 75 79 82 84 84 86 88 88 82 76 72 70 68 65 62 59 57 57 56 53 51 50 48 47 48 51 53 56 59 63 67 73 78 81 82 82 82 81 80
66 70 74 77 80 82 83 84 87 87 82 74 69 67 65 63 61 58 56 54 52 52 52 51 49 49 47 44 42 43 43 44 46 48 51 53 56 60 64 68 72 75 76
72 75 78 80 82 83 85 86 83 75 68 66 65 63 60 60 59 57 56 54 53 51 51 49 47 46 45 45 42 40 40 39 39 41 43 45 46 48 49 52 55 60 64
75 77 80 81 83 85 84 78 70 66 66 65 63 62 60 56 53 52 52 49 48 48 48 49 47 45 43 43 42 40 38 37 37 37 38 40 41 42 43 44 44 47 50